GFSSGP_925_thetae_060.txt.gz
Theta_e
311 311 313 315 311 309 313 314 316 330 344 341 341 345 348 347 349 346 340 337 335 343 343 339 337 337 335 334 335 335 332 332 331 331 329 327 326 322 320 322 323 323 323 314 312 312 312 311 312
311 316 318 309 309 310 310 315 329 342 339 339 340 344 346 349 344 340 339 337 337 341 342 340 338 336 335 334 334 334 335 334 332 330 326 325 321 320 320 318 317 317 313 312 312 311 311 311 314
313 316 311 309 305 308 310 337 339 337 335 338 337 337 342 347 343 342 338 337 339 341 341 339 337 336 333 334 334 335 333 330 328 330 324 321 319 319 314 312 310 310 313 313 312 311 311 313 317
313 308 305 308 309 310 317 328 341 340 336 333 333 337 337 340 340 341 333 331 335 341 341 339 337 333 334 335 334 332 331 327 328 325 320 318 317 313 311 311 311 313 313 312 312 313 313 315 317
312 304 309 306 309 328 335 334 333 335 337 334 333 336 339 340 341 339 333 335 337 339 337 336 331 333 334 333 332 331 326 324 323 319 317 317 313 311 314 314 314 314 313 312 312 313 313 314 315
310 304 307 309 314 337 335 333 333 333 331 332 332 335 335 340 339 338 337 337 335 334 332 331 331 332 332 332 331 327 323 321 318 316 316 313 312 315 314 314 314 314 313 312 313 313 315 319 319
311 308 309 310 311 338 336 331 333 334 331 330 332 338 334 338 338 338 337 336 333 331 331 331 331 330 331 332 327 324 321 317 316 315 313 316 315 316 315 314 315 315 314 314 313 314 315 320 320
308 306 310 310 313 332 332 332 333 333 332 328 329 337 334 334 337 336 334 333 332 332 332 332 329 331 332 329 325 321 317 315 314 315 317 316 317 317 317 317 317 317 317 317 316 317 320 322 322
308 309 310 311 321 333 329 332 329 330 331 331 331 330 332 335 334 333 333 331 329 331 330 330 331 332 331 327 323 319 315 314 316 319 321 323 322 321 320 321 320 321 320 321 320 321 323 323 322
308 308 311 319 329 329 327 330 329 331 330 331 331 334 333 331 332 331 332 332 331 330 325 331 330 332 329 325 320 317 314 318 319 323 325 328 327 326 324 324 324 325 324 324 323 322 324 322 321
310 311 319 328 327 325 325 329 329 328 328 328 330 337 334 331 330 328 330 329 328 324 330 329 330 330 325 319 318 315 318 323 325 326 327 328 328 328 328 329 328 327 327 326 324 322 320 319 317
313 316 324 328 326 326 326 327 329 327 326 327 326 333 332 332 330 327 328 326 325 328 331 331 330 327 319 317 317 321 323 323 326 330 330 329 329 328 327 326 325 323 322 322 320 320 318 317 315
314 326 326 325 324 326 326 323 324 327 333 328 333 331 329 327 329 326 326 327 323 328 330 331 329 322 322 319 326 327 326 328 330 330 329 328 327 326 325 325 323 322 321 319 317 316 315 314 312
320 323 322 322 324 324 325 322 324 324 327 331 330 331 329 329 331 330 330 330 328 328 329 332 329 325 324 324 324 326 328 331 330 329 328 327 326 326 325 324 322 319 317 315 313 312 311 311 310
321 323 322 321 323 322 322 323 325 323 326 334 335 332 329 328 329 329 330 330 327 327 326 325 326 326 327 327 328 330 330 329 328 325 324 325 326 326 324 319 313 312 312 312 311 311 310 306 303
318 318 320 322 322 323 321 325 323 324 329 333 335 334 330 329 329 329 329 330 327 328 325 324 326 328 328 329 328 328 326 324 321 321 322 322 322 322 314 310 311 312 312 311 311 310 306 303 302
317 319 320 324 322 321 321 322 326 326 329 330 332 332 329 325 325 326 330 326 326 323 324 327 329 329 328 327 327 324 320 319 318 317 317 317 312 312 313 312 312 312 311 310 308 306 304 302 302
318 319 319 320 323 322 321 320 323 324 326 325 329 330 326 325 325 326 328 325 325 325 322 327 330 329 328 327 324 320 319 318 317 314 311 313 314 314 313 312 311 310 309 307 305 304 303 302 301
320 320 319 318 317 322 319 319 320 322 323 324 328 330 330 327 325 327 327 325 326 326 327 329 330 328 327 326 322 320 320 318 314 312 314 314 313 313 313 312 310 309 308 304 303 303 302 302 301
322 322 321 318 316 320 317 318 322 324 325 324 322 320 320 321 320 322 324 327 327 327 328 329 330 327 327 326 323 321 322 318 313 314 314 314 313 312 312 311 309 308 304 303 303 303 302 302 301
322 322 320 319 318 318 315 320 321 323 323 322 322 321 320 323 325 324 326 329 329 328 328 328 328 327 326 325 323 322 320 318 315 314 314 313 313 312 311 309 307 305 304 304 303 303 303 302 302
321 320 321 320 317 315 317 319 320 319 326 324 323 323 322 325 326 329 329 329 329 327 327 327 327 327 326 324 323 322 319 315 315 314 314 313 313 312 310 307 305 304 304 304 303 303 302 302 302
322 320 321 321 320 320 320 318 316 320 322 324 324 324 324 326 326 330 330 329 329 328 328 328 328 326 324 323 326 324 318 315 315 314 314 313 312 311 309 306 305 304 303 302 301 300 300 301 301
320 321 322 322 321 323 322 320 318 319 321 322 323 324 325 326 327 329 330 330 330 330 330 329 327 326 325 326 326 322 317 316 315 314 313 312 307 306 306 304 303 302 302 301 300 299 298 297 298
320 320 322 322 322 324 322 322 320 319 319 319 322 323 324 326 329 328 327 328 328 329 329 328 327 326 326 326 324 318 316 315 315 312 308 305 304 303 302 303 301 300 298 297 296 296 296 296 296
323 320 321 324 324 321 324 324 323 321 319 322 322 324 326 329 330 328 327 326 327 328 328 328 327 318 317 317 316 314 310 310 309 307 305 304 304 304 307 299 298 297 296 296 295 296 296 296 297
321 323 323 325 322 321 319 320 322 322 321 322 322 325 325 325 327 326 324 324 325 325 326 327 319 317 316 315 312 310 309 308 306 306 305 306 306 302 299 299 298 297 296 296 295 295 296 296 296
319 320 324 323 319 319 318 319 323 323 326 323 322 325 324 321 322 322 322 320 320 319 320 319 318 317 316 315 312 310 307 306 306 306 305 303 300 299 299 298 297 296 296 296 295 296 295 295 294
319 319 320 319 318 319 320 318 317 321 323 323 322 325 324 320 320 320 321 320 320 321 319 318 318 317 313 311 309 307 305 305 305 303 302 300 299 298 297 297 296 296 296 295 295 295 294 293 292
318 319 319 318 318 319 316 317 315 318 319 322 322 324 324 321 318 318 320 319 319 320 319 318 316 314 310 307 306 306 306 304 302 300 300 299 297 297 297 296 296 296 295 295 295 294 293 292 292

GFSSGP_925_thetae_063.txt.gz
Theta_e
312 311 312 313 311 309 313 313 314 316 338 341 341 345 346 345 344 343 338 335 339 343 343 338 336 333 329 327 330 333 333 331 331 327 323 321 317 315 314 312 309 312 317 321 323 319 317 320 327
312 317 315 305 308 310 309 310 331 331 338 340 340 341 346 348 343 340 338 335 341 344 341 338 336 333 328 330 331 333 331 331 327 324 322 317 316 315 311 309 310 315 318 316 317 316 319 320 326
312 315 310 308 304 308 309 320 337 336 334 337 339 336 341 347 340 340 338 337 340 342 340 340 336 332 329 333 332 335 333 330 325 323 317 316 316 311 309 310 312 313 311 311 313 316 318 319 323
312 307 304 307 309 308 321 329 336 338 333 332 333 337 339 340 341 340 338 338 339 341 340 338 335 333 333 332 334 332 329 326 325 320 316 316 312 311 310 312 313 312 312 313 313 314 315 319 320
310 303 306 306 308 320 334 332 332 334 335 333 331 338 340 340 340 336 338 340 341 341 340 337 334 333 334 333 332 330 323 324 323 318 316 313 311 313 312 313 312 312 312 313 314 316 318 318 320
309 303 306 308 309 336 334 332 333 332 331 330 333 335 337 339 336 335 336 338 339 338 337 334 331 331 332 332 330 323 320 321 318 317 315 311 314 314 313 314 313 312 313 313 314 319 319 320 320
309 307 308 309 309 322 335 331 332 332 330 333 332 336 336 339 337 336 335 338 337 335 332 329 330 331 331 331 325 320 320 317 315 315 312 314 315 314 314 314 314 314 314 314 315 320 322 322 321
306 306 310 309 309 315 332 331 332 332 331 329 330 335 338 337 337 335 335 334 332 331 330 331 331 330 331 327 322 320 317 315 316 313 314 317 316 316 316 317 317 317 318 317 318 322 322 321 321
305 308 309 311 315 322 329 332 330 329 330 330 332 331 333 335 335 334 333 332 331 331 330 325 326 328 330 325 323 319 316 317 315 316 316 318 319 319 320 320 320 320 320 320 321 323 322 321 320
307 306 309 310 323 328 327 330 330 330 329 330 334 334 334 334 334 333 332 332 331 331 324 324 327 330 329 325 321 317 316 315 318 320 319 321 322 323 323 324 324 324 323 323 323 323 321 320 319
308 310 309 326 326 325 325 328 328 329 328 327 335 333 332 331 331 331 331 331 326 328 324 324 325 326 329 324 321 317 317 318 321 323 326 326 328 327 328 328 327 327 325 324 322 321 319 317 316
312 309 317 324 325 324 326 326 328 325 327 325 333 331 329 329 330 329 329 329 326 327 321 323 326 330 328 322 319 317 319 320 324 326 328 328 327 328 327 327 325 325 322 320 319 318 316 314 312
311 324 325 325 324 324 324 325 325 327 330 329 333 332 331 328 328 328 327 326 326 326 327 327 326 330 325 322 319 319 323 325 329 330 329 329 328 327 325 323 322 321 319 318 317 315 312 310 309
320 321 321 322 322 324 322 323 323 327 328 333 332 331 330 328 327 326 326 325 324 326 328 329 329 328 321 319 320 323 325 328 330 329 329 328 327 325 324 322 320 318 317 313 311 310 308 304 303
320 322 322 323 323 321 320 323 325 327 326 332 331 330 330 327 325 323 323 326 326 326 328 330 329 324 322 321 325 326 328 330 330 328 328 327 326 325 323 321 316 313 312 311 310 309 305 303 301
317 318 323 321 321 322 321 325 324 324 330 334 332 330 330 327 327 325 326 326 325 325 327 330 331 325 325 324 325 327 329 330 329 326 325 326 325 323 317 313 312 312 311 310 309 306 303 302 301
314 317 321 323 321 320 320 323 325 323 331 334 333 330 329 329 328 328 329 327 328 328 327 328 330 326 327 326 328 329 328 325 323 323 323 322 319 312 311 311 311 311 310 309 307 304 303 302 301
318 317 318 321 319 321 321 320 325 326 329 333 333 331 329 328 327 327 327 328 329 327 325 325 326 326 327 328 326 324 321 319 319 319 319 314 312 313 312 311 311 310 310 308 304 303 302 301 301
320 320 319 318 315 321 320 319 319 326 325 329 329 331 328 327 323 324 328 329 325 326 325 326 326 327 327 324 321 319 318 317 316 314 313 313 313 313 312 311 310 310 309 305 303 302 302 301 301
321 321 320 318 316 318 318 319 317 322 324 328 329 330 328 325 322 323 326 327 324 325 324 327 328 327 326 325 322 320 319 317 314 312 313 313 313 313 312 311 309 308 305 303 303 303 302 302 301
320 321 320 320 316 317 316 319 319 324 324 324 328 328 328 326 324 323 325 326 325 325 324 325 328 327 326 325 322 321 319 317 312 314 313 313 313 312 311 310 307 306 304 303 303 303 302 302 301
321 319 319 319 315 317 315 319 319 322 326 323 324 321 322 324 323 322 323 325 326 325 325 325 327 327 326 325 321 321 321 316 313 314 314 313 312 312 311 308 306 304 303 303 303 302 301 301 301
319 319 320 320 319 318 319 316 316 318 326 325 321 321 318 321 320 320 322 326 326 326 326 326 326 326 326 324 323 322 320 318 315 314 313 313 311 309 308 306 304 304 303 301 301 300 299 299 299
319 321 319 318 319 320 320 318 317 318 321 325 323 320 320 321 323 324 324 328 327 327 326 326 325 327 326 325 322 323 321 317 314 314 313 312 310 309 307 305 303 303 304 300 298 297 296 296 296
318 318 319 320 320 321 320 321 319 318 316 318 322 322 321 323 325 328 327 327 327 326 325 325 327 326 326 324 322 325 325 317 314 314 312 309 305 304 303 303 306 305 298 297 296 295 295 295 295
321 318 319 322 321 319 321 324 320 319 318 317 316 319 322 324 327 328 328 328 327 326 325 326 326 327 326 324 324 326 324 316 315 313 309 304 305 304 304 307 304 297 297 296 295 295 295 295 295
321 322 320 321 318 321 318 317 316 318 320 321 324 323 324 326 328 328 327 327 327 326 327 327 327 326 325 325 323 320 317 314 310 305 305 306 305 307 305 300 297 296 296 296 295 295 295 295 295
318 319 322 320 320 319 315 317 317 318 321 321 323 326 324 326 327 327 325 325 326 328 327 327 326 322 317 317 316 313 311 308 306 306 306 305 304 301 298 297 296 296 296 296 295 295 295 295 294
320 319 318 318 316 319 319 317 314 319 319 322 319 323 324 323 326 325 324 323 323 325 325 325 321 316 313 313 311 309 306 305 305 305 303 302 301 298 297 297 296 296 296 295 295 295 295 294 293
317 317 317 317 318 317 315 316 313 316 317 320 320 320 322 321 322 323 323 320 318 319 320 319 316 314 312 311 309 306 305 305 306 309 301 299 298 297 296 296 296 296 296 295 295 295 294 293 293

GFSSGP_925_thetae_066.txt.gz
Theta_e
312 311 312 311 310 308 311 311 314 315 323 341 341 343 343 344 344 343 336 337 341 345 341 337 331 329 329 331 335 335 333 330 328 327 324 321 316 314 311 310 322 325 324 322 323 324 327 326 321
311 316 314 304 308 308 307 309 324 336 336 340 338 341 345 347 342 339 335 341 344 344 340 337 332 329 327 328 331 331 330 326 326 323 319 318 318 312 310 314 321 323 323 324 321 324 326 325 323
312 314 309 305 303 307 307 309 332 335 333 336 338 336 339 344 340 339 338 340 342 343 339 336 331 329 329 331 331 330 328 324 322 318 316 317 315 313 313 315 321 323 324 324 320 322 325 325 324
312 306 302 306 309 307 308 327 330 337 333 332 333 338 339 340 341 339 337 339 340 341 339 336 331 331 332 333 332 333 323 322 320 315 317 316 316 313 316 318 322 323 322 316 318 319 320 323 326
308 302 306 306 307 308 333 331 330 333 334 332 331 338 339 340 339 338 338 338 340 341 338 335 331 332 333 333 331 328 321 325 316 319 318 313 314 316 315 313 314 314 315 317 318 319 319 319 319
308 302 305 308 308 318 333 331 332 331 331 331 334 335 339 337 337 337 337 339 340 339 337 335 330 330 333 331 328 319 325 317 315 318 313 314 315 315 313 312 313 313 315 318 319 319 319 319 319
308 306 308 308 308 309 332 329 331 331 330 333 331 336 338 338 337 337 338 338 338 337 336 332 332 332 330 329 325 328 323 314 318 316 314 315 315 314 314 314 313 314 314 319 321 322 320 320 319
304 305 309 308 309 311 330 331 331 331 330 328 329 336 340 337 336 335 337 336 335 334 332 332 331 330 328 327 327 324 316 316 317 314 316 316 316 316 316 316 316 316 317 320 321 321 320 319 319
304 308 309 311 311 314 329 332 329 328 329 331 333 331 335 336 335 334 333 332 331 330 329 331 329 327 325 325 326 319 314 316 314 316 316 316 317 318 319 319 319 320 320 321 322 321 319 319 318
307 306 309 309 310 327 328 329 328 329 328 334 333 335 335 335 334 333 332 332 330 328 328 328 325 320 324 327 323 318 317 315 316 318 318 319 320 321 322 322 322 322 322 322 321 320 318 317 316
306 310 308 311 325 324 325 327 327 328 328 330 336 336 335 333 332 332 331 330 325 323 324 323 325 326 327 325 320 317 316 319 317 319 321 323 324 326 326 325 326 325 323 321 320 319 317 316 313
311 309 310 322 323 323 324 326 328 324 329 328 332 332 331 332 332 331 328 325 324 323 320 320 321 324 329 324 319 317 317 320 323 325 325 327 327 328 327 327 326 323 321 319 318 317 314 313 312
309 317 321 324 323 323 324 324 325 327 330 331 330 330 329 330 330 330 328 326 324 323 321 319 318 321 329 324 319 318 319 321 324 327 328 327 328 326 325 324 322 320 318 318 315 313 311 308 306
319 320 322 323 324 324 322 323 322 329 332 331 331 329 329 330 328 327 327 325 323 323 323 320 324 327 328 323 319 319 321 324 327 329 328 328 328 326 323 320 319 317 316 313 310 307 305 302 301
320 323 321 323 322 322 320 323 327 327 330 331 332 331 329 328 327 326 325 325 325 324 326 325 327 328 327 322 318 320 324 329 330 329 329 327 325 324 322 320 318 314 311 310 309 305 302 301 300
319 317 322 320 320 320 320 324 326 325 330 326 328 331 329 327 325 325 324 324 323 323 325 328 329 330 324 320 320 325 327 329 329 328 327 326 324 323 321 318 313 311 310 309 307 304 301 300 300
312 316 319 321 319 319 319 323 323 323 331 331 329 329 330 327 324 323 325 323 323 323 325 327 328 328 323 321 324 326 329 329 328 326 326 325 323 320 317 312 311 310 310 308 305 302 301 300 300
318 317 318 318 317 320 320 320 324 323 331 332 330 329 329 328 325 327 327 327 325 323 325 325 328 328 325 324 326 327 328 326 324 324 324 323 319 313 311 311 310 310 309 308 303 302 301 301 301
318 319 318 316 315 318 318 319 325 324 327 331 331 329 328 328 327 327 327 327 328 327 327 326 328 328 326 326 326 325 323 322 321 320 319 315 312 311 311 311 310 309 308 305 302 302 301 301 301
320 320 319 317 316 317 317 318 316 325 329 327 331 330 328 326 322 323 325 327 327 327 326 325 326 326 326 326 326 324 320 318 318 318 314 312 313 312 312 311 310 308 305 303 302 302 302 301 301
319 320 319 319 316 316 316 317 318 320 325 323 327 329 329 327 324 321 323 326 327 326 327 326 325 325 325 325 323 320 317 317 313 313 313 313 313 313 311 310 308 306 303 303 303 303 302 302 301
320 317 318 319 315 316 314 317 316 319 325 323 324 327 328 327 323 321 322 324 324 324 325 325 325 326 325 325 322 321 318 315 313 312 313 313 312 311 310 308 306 304 303 303 303 302 301 300 300
318 318 319 319 317 317 317 315 314 320 325 325 322 325 325 326 324 321 321 324 324 324 324 324 324 325 325 324 322 321 319 318 315 313 313 313 312 310 309 307 305 304 303 302 301 300 299 297 297
318 320 316 315 317 320 318 317 316 317 323 323 323 321 323 320 320 320 320 323 324 324 324 324 324 324 325 324 322 321 321 319 316 313 313 312 310 309 308 306 305 303 303 302 299 297 295 295 295
317 316 318 318 319 320 318 319 318 317 315 318 322 322 319 318 318 318 321 324 325 324 325 324 324 324 325 324 322 322 321 319 317 314 313 311 310 308 306 305 302 306 304 298 297 295 295 294 295
319 316 317 321 320 318 317 321 318 317 317 315 313 319 317 317 320 322 322 325 326 325 325 325 325 324 325 325 324 323 321 320 316 314 313 311 310 306 304 303 307 304 297 297 296 295 294 294 295
320 319 316 318 316 320 317 315 312 315 319 321 323 318 317 319 321 324 324 325 325 325 325 324 324 324 325 325 324 322 322 323 316 313 312 309 305 305 304 307 303 299 298 296 296 295 294 294 295
317 317 319 317 322 319 314 315 314 315 316 320 324 321 320 320 321 324 325 325 326 326 325 324 324 325 326 326 324 323 323 318 315 313 306 305 306 306 307 303 299 297 296 296 295 295 295 295 294
319 318 316 316 314 318 318 315 312 316 317 318 319 319 321 322 324 324 325 326 326 325 325 325 325 326 326 324 323 321 315 311 309 306 306 306 307 308 301 299 297 296 296 295 295 295 295 294 294
316 317 316 317 317 315 314 315 312 311 312 316 318 317 320 321 323 324 324 324 323 323 323 324 324 323 318 314 311 308 307 305 305 305 305 306 302 300 298 297 296 296 295 295 295 295 294 294 293

GFSSGP_925_thetae_069.txt.gz
Theta_e
312 311 312 312 316 315 315 315 316 317 320 341 342 343 344 343 344 347 337 336 342 341 339 337 331 328 327 325 325 326 328 329 328 326 323 320 319 320 321 319 317 324 327 329 325 322 327 329 329
312 315 313 311 314 314 314 312 321 331 333 340 339 342 346 347 342 338 336 339 340 341 339 339 335 330 329 328 329 330 330 327 325 322 319 324 322 323 324 322 320 325 327 325 326 326 322 328 329
313 313 316 312 310 313 313 311 325 329 334 337 340 338 341 345 340 336 337 341 342 341 338 337 335 335 336 336 336 336 335 325 324 317 320 325 324 326 324 321 322 323 321 324 324 323 323 327 329
312 310 308 314 313 312 311 315 334 336 334 334 336 341 340 340 341 338 338 340 341 340 338 335 333 335 336 336 336 335 328 325 324 319 322 324 327 327 323 323 321 321 322 323 324 323 323 327 328
307 309 313 312 311 310 315 330 332 334 335 334 333 340 342 337 339 338 340 341 341 339 338 332 331 334 335 333 328 323 322 322 319 319 324 324 325 324 323 321 318 318 319 319 321 323 325 326 325
314 308 313 313 312 311 327 332 332 332 332 334 338 339 340 336 338 339 339 339 339 339 336 332 329 331 332 330 324 321 322 317 317 315 317 316 318 318 318 316 317 318 318 319 319 319 319 319 315
315 313 313 311 312 312 322 331 332 332 332 334 333 339 339 338 337 338 339 339 338 338 335 332 331 332 330 326 325 322 317 319 317 310 313 315 314 314 315 315 316 319 320 320 319 319 318 317 317
311 313 312 312 313 314 322 332 331 332 332 330 330 337 339 338 337 337 337 338 337 335 335 334 333 329 325 324 327 325 322 319 311 314 315 315 314 314 314 315 317 320 321 321 320 319 319 318 318
307 315 315 314 313 315 330 333 330 328 330 334 333 333 335 335 336 335 334 333 333 332 332 331 329 327 324 323 322 322 320 313 313 315 315 315 316 316 316 317 318 321 321 320 319 319 319 318 317
313 314 314 313 312 323 329 331 329 331 331 334 335 334 336 334 334 333 333 332 330 331 328 326 324 322 320 318 318 319 317 313 316 315 316 317 317 317 319 320 321 321 321 320 319 318 317 317 315
310 316 312 312 313 326 327 329 328 329 330 331 335 337 336 335 334 333 332 328 327 328 329 325 323 320 317 320 322 320 318 316 317 317 318 319 321 321 321 322 323 321 320 317 316 315 314 313 312
313 311 311 316 326 324 326 327 329 326 330 330 332 334 333 333 333 332 327 325 324 324 322 320 320 318 318 324 320 319 318 317 319 319 322 323 324 325 325 325 324 321 319 318 316 314 312 311 309
312 316 322 322 324 324 325 325 327 332 332 330 333 333 332 332 331 328 325 324 323 323 322 323 323 323 327 323 319 317 319 317 319 323 325 326 327 327 327 323 320 318 318 317 315 312 309 305 303
318 322 324 325 325 324 323 324 323 331 330 332 331 331 329 330 329 326 325 323 320 321 321 322 319 321 326 324 320 317 319 322 324 326 327 327 327 326 323 320 319 317 316 313 310 306 303 301 300
321 325 322 324 324 324 322 326 329 331 331 332 331 330 330 329 329 327 325 324 322 321 319 319 321 324 328 325 319 318 319 322 325 326 328 327 325 322 321 318 316 314 311 309 307 304 301 300 299
321 320 324 321 322 321 322 326 329 331 330 332 332 330 328 329 327 327 325 324 324 323 320 320 323 326 328 324 318 319 322 326 328 328 327 326 324 322 320 318 314 311 309 308 305 302 300 299 301
316 320 321 320 321 320 321 325 326 330 329 326 331 330 329 328 326 325 324 324 323 324 324 325 327 327 328 323 318 320 324 328 328 327 327 326 323 321 320 317 312 310 309 307 303 301 300 302 302
320 319 319 320 319 320 321 323 326 328 332 328 329 330 331 328 327 324 324 324 323 324 325 326 327 329 327 321 321 325 328 328 327 326 326 324 323 321 316 312 310 309 308 306 302 302 301 301 302
318 319 320 319 317 318 320 321 327 328 331 332 331 329 330 329 326 325 325 325 324 324 324 324 326 328 325 322 324 325 326 326 325 324 324 323 320 315 312 310 310 309 308 303 302 302 302 302 301
320 321 321 319 317 318 318 320 322 327 330 331 331 331 329 329 328 326 326 326 326 325 324 324 325 327 325 323 323 324 325 323 323 321 321 318 314 311 311 310 309 308 306 303 303 303 303 302 301
320 321 320 320 317 317 318 320 319 322 326 329 330 331 331 330 329 328 326 327 327 327 326 326 326 327 327 324 324 324 322 320 318 317 314 312 312 312 311 310 309 307 304 303 303 303 303 303 301
321 319 319 320 319 320 315 321 317 319 325 328 330 331 332 331 328 328 326 326 327 326 325 326 325 325 325 325 324 324 320 317 315 315 314 312 312 312 311 310 308 306 304 303 303 303 302 301 302
321 318 320 320 319 318 319 319 320 319 322 324 327 328 330 331 330 327 325 325 326 325 325 325 325 324 324 324 324 322 319 317 316 314 313 313 313 312 310 309 307 305 303 303 303 301 300 298 299
318 320 318 318 320 324 320 319 321 320 322 323 323 325 327 328 330 329 325 323 324 324 324 324 324 324 324 324 323 321 320 319 316 313 312 312 311 310 310 309 305 304 303 303 301 298 296 295 295
318 320 323 323 325 325 320 321 322 320 318 318 321 324 325 326 328 328 325 323 324 324 324 323 324 323 323 324 323 321 321 321 318 315 312 311 311 310 308 305 304 303 307 305 299 296 295 294 295
319 320 325 321 322 321 318 323 322 318 318 318 319 318 322 324 325 325 325 324 324 324 324 324 324 324 322 322 322 322 322 321 320 317 314 313 311 309 306 304 303 306 309 300 296 296 295 294 294
321 322 317 321 318 324 321 319 316 315 319 320 322 324 319 321 322 323 323 324 324 324 324 324 324 324 323 322 322 322 323 322 319 316 313 311 309 308 304 303 306 309 300 296 296 296 295 294 294
320 320 324 321 323 322 319 317 319 319 318 319 323 325 323 319 320 322 324 324 325 325 325 325 325 324 322 322 322 324 324 322 319 313 310 308 307 304 304 307 309 301 296 296 296 295 295 295 294
321 321 318 319 320 323 323 321 317 318 318 320 321 322 323 324 323 323 325 325 325 326 326 325 325 323 321 322 322 323 322 319 313 309 307 307 304 307 308 308 302 298 296 296 296 295 295 295 295
318 320 321 326 321 319 319 320 316 316 315 315 319 319 320 324 325 325 326 326 326 326 325 324 322 320 320 319 319 315 315 311 308 307 305 306 308 310 306 300 298 296 296 295 295 295 295 295 295

GFSSGP_925_thetae_072.txt.gz
Theta_e
317 314 314 317 318 317 318 318 318 320 325 325 331 341 344 345 342 346 341 340 343 342 336 337 339 341 338 337 337 333 330 330 331 329 325 320 315 315 317 319 323 325 322 326 328 332 332 329 327
315 316 317 318 317 318 318 317 320 327 328 336 337 339 341 342 344 341 340 341 343 341 336 336 335 338 338 337 332 330 330 329 328 325 319 316 314 316 318 323 324 324 326 328 330 334 333 327 325
315 315 319 318 317 317 317 317 320 331 331 338 331 335 341 345 341 340 340 342 343 340 336 336 330 331 331 330 331 332 329 327 325 321 318 317 318 319 319 323 323 326 333 333 330 333 329 329 323
314 316 316 316 317 316 316 318 328 336 334 336 338 335 341 340 342 339 340 342 342 340 338 335 329 329 329 331 332 330 327 325 326 322 320 320 320 319 321 324 324 327 329 325 328 327 328 328 320
314 316 316 316 315 316 316 321 328 336 336 337 336 339 336 338 341 339 342 342 341 340 339 336 331 330 332 333 332 328 324 325 323 323 324 323 321 321 321 322 322 324 325 323 323 327 329 326 316
317 316 316 316 316 317 317 325 331 335 335 336 338 337 333 337 340 340 341 342 341 340 338 337 332 334 335 336 333 325 321 319 321 323 323 322 320 320 319 319 320 320 323 324 324 327 327 318 315
317 317 316 316 318 321 322 331 334 334 334 336 336 340 341 339 339 340 341 339 338 338 337 336 333 335 334 333 330 325 320 320 316 316 318 317 319 317 316 317 318 319 319 319 321 322 318 315 317
316 317 316 316 319 322 324 332 334 333 334 334 334 338 341 339 338 338 337 338 338 336 335 334 333 332 329 326 327 326 324 321 316 315 315 316 315 315 316 318 319 319 319 319 319 318 316 317 318
316 318 316 317 321 319 326 331 333 331 334 334 336 336 338 337 335 337 335 334 334 334 333 333 332 327 323 323 326 326 323 317 317 316 314 316 319 320 321 321 321 321 320 319 319 318 318 318 317
317 318 317 317 317 318 325 332 332 333 334 335 336 336 338 337 335 334 334 333 331 330 328 330 326 323 322 323 323 325 320 322 321 320 321 321 322 322 323 322 321 321 320 319 318 318 318 317 317
319 319 318 318 318 319 325 330 330 330 330 331 335 338 337 337 336 335 332 331 330 327 326 326 324 322 320 318 318 318 323 322 323 322 321 323 324 324 325 323 322 320 319 316 316 316 316 315 315
319 319 318 318 324 327 328 329 329 330 332 332 332 335 336 335 334 332 328 327 327 327 325 323 322 320 320 318 316 313 322 324 323 323 324 326 325 327 327 325 322 319 318 317 316 315 314 312 311
320 320 325 322 326 328 326 327 329 330 333 332 332 335 334 332 331 328 326 325 325 323 322 321 321 321 321 319 322 321 317 318 323 325 327 327 328 329 327 324 320 319 317 318 316 314 312 309 307
323 326 328 328 328 327 326 327 328 332 331 332 333 332 332 332 329 326 324 323 321 320 320 317 317 314 313 314 318 321 320 320 324 327 330 331 330 328 324 321 321 318 318 316 314 311 308 306 306
325 327 327 328 327 326 326 328 329 331 331 332 332 330 329 330 328 325 324 323 321 321 320 319 320 322 323 324 323 322 323 324 326 329 330 327 327 325 323 322 320 317 314 312 309 308 307 305 304
325 325 324 325 325 325 326 325 329 330 332 331 331 332 330 330 327 326 322 324 323 323 323 323 322 326 326 325 322 322 324 327 329 330 330 327 325 323 322 320 317 314 312 310 309 307 306 306 305
323 322 321 323 323 324 325 324 329 329 327 327 329 329 330 330 326 327 326 323 324 322 321 321 323 328 328 327 323 323 326 329 330 329 330 328 325 322 321 319 316 313 311 311 308 307 307 307 306
321 321 321 322 322 323 323 323 327 331 328 327 327 328 331 330 329 325 326 327 325 321 321 322 326 326 329 328 326 326 328 329 329 329 328 325 323 321 320 318 316 313 312 309 308 308 307 307 307
320 321 321 321 321 322 322 322 325 331 331 329 328 328 331 329 327 325 326 325 324 323 324 326 329 330 330 327 324 325 327 328 326 326 325 323 320 320 319 317 314 312 311 309 309 309 309 308 307
321 321 322 321 321 321 323 323 323 330 332 331 330 329 328 331 327 326 325 326 325 325 326 327 329 330 329 325 324 326 328 326 327 326 322 320 319 318 316 315 313 312 311 309 309 309 309 308 306
321 322 322 321 322 322 322 323 323 325 329 331 331 330 330 328 330 327 326 326 326 325 325 327 328 329 329 328 324 327 327 325 325 324 319 317 318 315 315 314 313 312 310 309 309 309 309 309 307
323 322 322 322 323 323 321 321 321 323 326 329 331 332 332 331 328 329 327 327 327 327 326 326 327 329 330 329 327 325 325 326 325 322 318 315 313 314 314 313 312 311 309 309 308 309 308 307 307
322 321 323 323 324 323 323 321 322 322 323 324 328 331 333 333 331 329 329 327 327 327 328 329 329 330 330 329 328 327 327 326 321 318 316 314 314 314 313 312 312 310 309 308 307 307 306 305 303
321 323 324 324 324 325 323 322 321 321 322 323 324 326 331 332 333 332 328 327 328 329 330 329 329 329 328 328 328 327 327 323 319 317 316 315 315 315 313 312 311 310 308 307 307 304 302 301 300
322 324 326 327 326 325 323 323 322 321 322 323 323 323 326 329 332 333 332 330 328 328 329 329 329 328 328 327 327 326 326 324 320 318 316 317 315 314 313 312 310 308 306 307 307 304 301 300 300
323 324 325 323 324 323 321 321 321 322 322 321 324 325 324 326 328 332 333 331 329 328 328 328 329 329 328 328 327 325 325 324 322 319 318 317 316 315 313 311 309 307 305 308 306 300 300 300 299
324 324 323 325 324 325 321 321 319 320 320 323 325 326 328 325 326 328 330 331 330 329 328 328 328 328 328 327 326 326 325 324 322 321 321 319 317 315 311 309 306 304 308 307 299 300 300 299 299
323 323 324 324 324 323 321 321 320 319 320 323 321 321 327 325 325 326 328 329 330 330 329 328 328 328 327 327 326 324 325 324 322 321 320 318 315 310 309 306 304 306 309 300 300 300 300 299 299
324 324 323 323 323 324 323 322 320 319 320 321 322 324 324 328 326 325 326 326 328 329 329 329 328 327 328 327 325 324 324 323 321 320 317 314 310 307 305 305 309 308 302 300 300 300 299 298 298
322 322 324 323 323 324 324 322 320 320 321 322 322 322 324 325 328 327 327 327 327 329 329 328 328 328 328 327 325 324 323 319 315 311 310 309 307 305 308 309 306 302 300 300 299 299 298 298 298

GFSSGP_925_thetae_075.txt.gz
Theta_e
316 318 316 317 319 320 319 320 320 320 321 324 325 325 333 339 345 349 344 343 345 341 339 342 343 343 341 337 336 335 334 337 332 328 326 323 321 320 318 321 327 333 337 338 337 335 328 322 317
319 316 316 319 319 319 319 319 319 320 326 329 326 326 329 341 329 343 343 343 345 340 339 341 342 342 341 338 337 337 338 337 329 326 322 319 318 316 317 320 325 332 336 337 337 333 326 321 317
317 317 320 321 320 320 318 319 319 323 330 333 330 330 331 342 342 342 342 344 344 339 338 341 342 341 340 339 338 337 337 335 327 322 320 318 316 317 320 323 329 332 335 336 336 333 326 321 316
317 318 319 318 318 319 318 319 322 327 330 330 332 328 331 340 342 343 342 344 344 339 338 339 340 340 340 338 337 336 336 329 324 321 320 318 319 321 324 327 332 334 334 335 335 329 325 318 315
316 318 319 319 318 318 319 324 327 330 332 333 336 334 334 335 328 340 342 343 343 339 339 338 340 340 338 336 336 335 329 324 320 320 319 320 321 323 323 326 331 329 334 334 330 329 324 315 316
318 319 319 318 318 318 325 324 323 331 333 336 337 334 330 329 325 332 342 343 342 339 339 337 336 336 336 336 335 329 325 321 320 320 320 318 319 322 322 324 325 323 324 327 328 328 322 315 317
318 320 319 318 317 324 325 329 332 332 331 335 335 338 339 335 327 334 340 341 340 339 337 336 333 333 336 335 330 327 323 321 321 317 316 316 318 319 321 321 323 323 323 325 328 326 316 317 317
317 319 318 318 319 324 325 329 331 333 333 333 334 337 340 339 339 339 340 339 338 333 334 333 332 331 333 329 327 330 328 327 325 321 318 316 317 318 319 319 319 320 323 326 325 318 315 317 317
318 319 318 318 319 323 323 327 333 332 332 332 335 337 340 339 340 339 337 335 333 332 333 334 333 333 326 324 327 328 327 327 322 320 318 316 316 318 323 320 319 319 319 319 317 316 318 318 317
319 321 319 319 319 319 320 326 329 330 331 331 335 336 339 339 339 336 335 333 330 330 332 332 326 321 320 323 324 325 324 324 322 319 319 319 318 324 324 321 321 319 319 318 318 318 318 319 318
320 320 320 319 321 321 322 326 329 329 328 332 331 336 339 339 338 336 333 331 329 328 327 327 320 318 317 318 317 321 323 323 321 320 320 321 325 323 323 322 322 320 319 318 318 318 319 319 319
319 319 320 321 321 325 326 327 327 327 330 331 331 334 338 338 336 333 331 330 327 326 324 323 321 322 323 324 323 324 323 323 322 322 323 326 325 325 324 324 323 322 321 320 320 319 318 317 314
320 319 320 324 323 327 326 326 327 327 331 334 333 335 337 335 330 329 328 328 326 325 323 322 320 319 318 317 314 315 316 318 318 324 325 325 325 327 326 326 324 323 322 321 320 319 317 312 310
322 322 324 325 326 327 326 326 326 333 332 333 334 334 333 331 329 327 325 324 322 320 322 322 321 318 318 317 316 315 318 324 324 325 327 328 327 327 327 326 324 322 322 321 320 317 312 310 309
325 324 324 325 325 326 326 326 324 330 330 333 333 332 331 331 328 325 324 322 320 319 320 320 319 319 320 318 315 313 320 324 323 322 329 330 328 329 326 325 323 323 321 318 315 311 310 309 308
325 325 325 328 326 325 324 330 326 330 330 330 331 331 331 330 327 325 323 322 320 319 318 318 318 317 316 315 316 318 322 323 326 328 328 331 329 328 327 326 323 320 318 316 312 311 310 310 310
324 324 325 325 322 324 324 324 328 329 329 329 330 327 329 330 324 324 323 322 322 322 319 319 317 317 320 324 323 322 324 324 325 327 328 329 328 327 326 324 322 319 316 314 312 311 312 311 310
324 326 322 320 323 323 322 323 325 329 328 328 329 328 322 324 327 325 325 324 324 323 322 323 323 323 324 326 323 323 325 326 328 329 328 329 328 327 325 323 321 318 315 313 312 312 311 312 311
322 322 322 322 322 322 322 323 323 329 330 329 327 330 326 324 326 326 324 325 323 323 323 322 324 324 326 328 326 324 324 328 329 329 330 329 327 326 324 322 320 317 315 313 313 313 313 312 311
321 322 322 323 322 322 323 323 323 327 329 330 330 328 330 328 327 326 326 326 323 323 322 323 326 328 329 327 324 322 324 328 329 329 328 326 324 323 324 322 319 316 314 313 313 313 313 313 311
322 323 323 324 323 323 323 323 323 325 329 330 330 328 329 329 328 327 327 327 326 324 324 325 327 329 330 326 323 324 325 327 328 327 327 325 323 323 322 320 318 315 314 313 313 313 313 313 312
323 323 322 323 323 326 324 324 325 323 326 329 330 331 329 329 328 327 327 327 327 326 327 328 328 330 330 330 325 325 328 328 327 327 326 321 320 319 320 319 316 316 314 313 313 313 313 311 311
323 323 323 324 325 324 323 320 322 321 322 325 328 331 331 329 329 328 327 326 327 327 327 327 328 328 329 330 330 327 327 326 327 326 323 319 320 318 318 317 316 316 313 313 312 311 311 309 307
323 323 324 325 325 327 323 323 322 321 320 322 323 328 330 331 330 329 327 326 327 328 329 329 328 328 329 331 331 329 328 327 327 325 320 318 318 316 317 316 315 315 313 312 311 310 309 306 304
323 325 328 328 328 328 325 323 321 323 321 322 322 324 327 330 331 330 329 328 327 328 329 330 330 330 330 332 331 331 330 329 326 324 322 320 318 317 317 316 315 314 312 310 308 310 309 305 304
323 324 327 331 328 326 325 322 322 322 321 321 321 323 324 326 330 332 332 329 328 329 330 331 331 330 330 330 330 330 330 329 327 324 323 321 319 319 318 315 314 313 311 307 309 310 305 303 302
324 325 324 327 325 326 324 322 322 321 320 320 322 324 325 327 326 329 331 332 330 329 329 331 331 330 330 330 330 330 329 328 327 325 323 321 319 318 316 315 314 311 308 307 309 304 301 302 302
323 324 325 325 326 330 323 323 321 321 320 322 322 322 326 327 327 327 328 330 332 331 330 331 331 330 330 330 331 329 328 327 327 325 323 320 319 318 316 314 311 308 306 309 309 302 303 303 302
323 324 324 324 325 327 327 323 323 320 320 321 321 321 322 324 327 327 328 329 330 332 332 331 330 329 329 330 330 328 327 326 325 324 322 322 319 315 313 311 308 305 307 309 303 303 302 302 302
322 323 323 325 324 324 324 325 322 321 321 321 321 321 322 323 325 327 328 327 328 331 332 332 332 330 329 330 330 327 325 326 323 321 319 316 313 311 310 307 305 308 305 302 302 302 302 301 300

GFSSGP_925_thetae_078.txt.gz
Theta_e
315 315 320 319 318 319 320 319 320 320 321 323 325 324 325 333 342 347 325 330 340 341 344 344 343 341 337 334 334 333 333 331 329 327 327 325 321 321 324 329 333 334 336 336 335 332 318 315 317
321 323 318 318 319 321 319 320 320 321 328 328 326 326 326 334 329 329 328 329 325 341 344 344 343 341 340 337 336 337 337 330 328 327 325 321 319 322 328 332 334 335 335 336 335 329 316 316 317
313 319 318 321 322 320 320 320 320 321 328 327 324 325 326 336 334 336 336 328 334 340 343 344 342 341 340 339 337 337 337 330 328 325 320 319 320 325 327 332 334 335 335 336 333 318 316 316 319
318 318 318 319 317 318 319 321 322 325 329 326 327 329 339 338 330 326 325 334 341 340 343 343 342 341 339 338 337 338 333 329 325 321 319 320 322 325 327 331 334 334 335 335 325 318 315 315 319
318 318 318 319 319 320 321 323 323 322 329 326 325 329 337 337 335 336 340 342 341 340 341 341 341 340 339 338 336 335 331 327 323 321 320 322 323 326 332 332 332 334 333 331 325 318 315 316 318
318 319 319 320 320 323 326 326 329 328 329 326 323 333 333 330 328 331 342 343 341 339 341 340 340 340 339 337 336 334 328 324 323 321 319 320 323 326 329 327 331 333 332 329 326 318 315 317 318
317 318 319 319 319 323 323 326 327 329 326 325 322 333 333 334 332 337 340 341 336 333 340 341 339 338 338 336 335 330 326 324 321 319 318 321 323 325 325 322 327 331 328 328 325 317 316 317 318
318 317 318 319 320 323 325 326 326 330 332 329 327 334 326 332 340 338 337 335 330 328 324 336 337 337 336 335 332 329 327 325 320 319 319 321 322 322 323 322 323 324 326 327 324 315 317 318 318
317 317 319 321 320 320 323 323 323 329 330 328 330 329 334 340 339 336 333 331 329 326 326 325 329 334 332 331 329 328 326 324 322 322 321 321 320 320 320 322 323 323 325 324 317 316 318 318 318
318 319 321 321 319 319 320 320 323 327 328 328 325 334 339 339 337 335 333 330 331 330 331 330 330 330 328 327 326 326 326 325 323 321 319 321 322 321 319 319 319 319 320 318 316 319 319 319 318
319 319 320 320 320 320 321 326 327 327 331 326 327 334 338 338 336 334 332 331 329 328 329 330 329 324 326 327 326 326 325 324 321 318 320 324 325 323 319 319 319 319 318 318 319 319 319 319 319
320 319 319 320 320 321 322 326 326 327 333 331 333 337 338 336 335 332 329 328 328 326 326 326 323 322 322 320 315 313 315 318 316 320 320 324 324 321 321 322 319 319 319 319 319 320 319 318 316
320 321 319 320 322 321 324 323 326 330 332 332 333 335 336 333 331 329 329 327 325 325 322 321 319 318 316 316 317 320 320 314 323 323 323 325 323 321 323 324 322 322 321 321 320 320 317 313 310
321 321 322 321 323 325 325 326 327 324 328 332 334 334 333 330 329 327 324 324 324 322 322 322 320 319 317 319 322 322 321 321 322 324 323 324 326 325 326 324 324 323 322 321 320 319 315 311 310
322 322 323 326 325 326 326 326 326 324 323 330 332 332 332 329 327 326 323 321 320 320 320 318 317 316 317 317 318 318 318 318 318 320 322 326 326 326 326 325 323 322 322 322 319 315 311 310 309
322 322 326 328 325 324 325 326 326 323 327 331 330 331 332 330 326 324 321 320 320 320 319 318 316 315 316 315 316 316 317 316 317 315 320 319 324 327 327 324 323 324 321 319 316 311 311 310 310
321 324 326 325 326 325 324 327 327 324 327 331 326 330 331 328 324 322 322 320 319 319 319 318 317 316 316 316 315 314 313 318 320 320 319 322 325 328 326 326 324 321 320 316 313 312 311 311 310
324 327 326 325 325 324 324 321 330 331 327 330 325 328 328 327 325 323 321 320 319 319 318 317 317 317 316 315 313 316 321 322 321 321 323 324 328 328 326 325 322 320 317 314 312 312 312 312 312
322 322 322 323 323 323 324 320 323 327 327 329 325 323 325 326 326 324 323 323 322 319 318 318 317 317 316 320 322 323 323 324 321 318 323 325 328 328 326 324 322 319 316 314 313 312 312 312 312
321 321 322 322 322 324 322 321 323 327 327 329 330 324 324 328 326 326 326 325 324 321 321 321 321 320 322 323 325 324 325 324 322 324 326 327 327 327 326 324 322 319 316 314 313 313 314 314 312
321 322 323 324 323 324 323 322 323 325 326 330 328 330 326 327 328 326 325 326 325 324 324 325 325 324 326 325 327 324 325 325 326 326 327 328 327 326 325 324 321 318 316 313 313 313 314 314 312
323 322 323 322 323 324 325 326 324 324 326 328 331 329 329 328 328 327 326 326 324 325 324 324 324 327 329 328 326 324 325 327 328 327 327 327 325 323 324 323 320 317 315 314 313 314 314 313 312
323 323 324 323 324 325 326 327 322 324 325 327 330 331 329 329 328 327 327 328 327 324 323 324 325 328 329 329 328 323 326 327 327 328 327 325 323 323 324 321 319 316 316 314 314 314 313 312 311
322 323 324 324 325 328 325 325 325 324 324 323 327 330 330 329 328 327 327 327 327 327 325 326 328 330 330 330 328 327 328 327 328 328 326 324 321 321 321 320 318 316 315 314 313 312 311 310 308
322 324 328 332 332 331 325 325 326 325 324 322 323 326 330 330 330 328 328 327 328 328 328 329 329 329 330 330 331 329 329 327 328 327 325 322 320 319 320 318 317 316 315 314 312 311 310 308 307
323 324 330 332 335 333 329 326 322 323 322 322 321 322 327 329 331 330 328 327 327 328 329 329 329 329 329 332 332 329 331 329 329 328 325 322 321 320 319 317 316 315 315 312 311 309 308 306 304
324 325 325 328 327 334 330 326 326 322 321 320 320 322 324 325 329 331 330 329 328 328 330 330 331 331 330 332 333 331 330 331 330 327 324 323 322 320 318 318 316 315 313 311 308 309 304 303 304
323 324 328 326 331 330 323 324 327 324 322 321 322 323 326 328 328 328 330 331 329 329 329 331 331 331 331 331 332 332 330 331 330 327 325 324 322 320 319 318 316 313 311 308 309 308 306 303 303
322 323 327 326 326 330 332 326 326 324 322 322 321 323 323 323 328 328 328 329 332 330 330 332 332 332 332 331 332 332 331 330 328 328 326 324 321 320 318 315 312 310 308 307 308 309 305 304 303
321 323 325 329 326 329 332 329 324 323 322 322 321 322 322 323 324 326 327 328 329 333 331 332 332 332 332 331 332 332 330 328 327 326 324 323 322 319 315 314 311 309 306 306 306 303 303 302 302

GFSSGP_925_thetae_084.txt.gz
Theta_e
314 315 318 317 311 308 312 314 313 321 326 325 323 326 331 333 339 337 327 335 338 341 343 339 339 329 327 328 329 329 329 328 323 322 321 323 325 332 333 333 331 329 327 329 330 329 329 329 327
315 321 319 311 310 311 311 312 328 326 325 324 324 327 332 334 330 329 328 331 337 339 341 339 335 337 332 330 329 331 330 326 324 322 320 323 330 333 333 333 327 323 323 328 330 329 325 325 325
314 315 312 311 309 313 313 316 323 326 322 324 322 324 333 334 331 331 330 329 338 337 339 340 335 332 338 331 330 329 328 325 324 319 319 325 332 333 334 331 321 318 322 327 327 322 322 322 321
316 311 308 312 313 312 315 315 324 327 324 322 322 325 325 326 333 330 328 327 332 334 337 335 336 328 332 333 330 329 327 326 322 319 321 328 333 333 332 328 319 318 319 320 321 321 322 320 320
317 307 310 311 311 312 314 322 325 327 327 324 323 325 325 328 327 335 330 328 328 328 329 330 336 336 333 335 330 329 327 324 319 317 321 332 333 332 331 328 319 317 317 319 321 321 319 319 322
312 307 311 311 312 314 319 320 328 328 324 324 326 328 328 328 336 334 337 331 332 330 332 329 330 336 333 337 330 329 327 322 320 318 323 332 333 333 332 329 318 316 316 317 318 318 318 319 319
311 310 312 311 314 313 320 320 326 327 327 327 324 330 327 333 333 334 332 331 332 330 330 331 326 330 332 337 333 329 325 320 319 322 325 333 334 333 332 328 318 316 317 317 317 317 317 319 316
310 310 313 311 312 313 319 321 324 328 325 324 325 332 328 327 333 331 330 329 330 330 329 325 325 321 332 335 332 327 322 320 319 319 323 331 333 333 332 327 320 316 316 317 318 318 318 318 315
310 311 311 311 312 315 317 322 325 325 327 328 329 325 326 333 332 331 330 326 326 327 326 326 326 325 330 333 329 325 323 320 321 324 327 331 333 333 332 327 322 318 316 317 318 318 318 317 314
312 309 312 312 312 316 318 324 323 329 329 328 329 327 323 329 331 330 330 326 324 325 327 332 332 334 333 332 330 330 326 324 326 330 331 332 333 332 331 327 325 320 316 317 318 319 317 316 315
312 313 315 314 313 315 318 328 328 328 333 332 331 332 329 335 333 331 330 327 326 324 326 331 330 329 331 330 330 329 325 325 327 329 327 329 331 330 328 327 325 321 316 318 319 318 318 317 314
315 313 314 314 318 321 318 325 330 329 331 335 335 334 335 333 332 331 330 329 328 327 327 330 329 325 327 326 328 326 325 324 325 325 324 323 324 326 326 326 324 317 316 319 319 318 318 317 312
316 316 316 319 321 322 322 324 325 328 327 334 333 333 332 330 329 328 328 326 326 326 328 328 328 328 327 325 323 323 323 321 321 321 321 322 321 324 325 324 320 316 319 319 319 319 317 314 310
316 317 317 316 319 321 323 324 323 321 328 334 332 331 331 331 329 326 326 324 324 323 324 327 328 327 327 326 323 321 321 322 321 321 319 318 317 319 319 319 317 318 319 319 319 319 316 312 309
318 317 316 316 319 321 321 323 323 321 324 335 332 330 328 328 327 327 325 324 322 322 322 322 323 324 324 323 320 317 316 315 314 323 323 319 318 318 319 318 319 319 319 320 320 318 312 310 309
318 317 317 317 322 321 320 320 322 320 326 331 331 328 327 328 325 323 323 322 322 320 319 320 319 319 321 320 315 313 321 324 322 323 324 320 320 320 320 320 320 320 320 320 319 316 311 310 308
317 319 319 319 320 322 322 321 321 320 326 330 330 327 326 325 323 322 321 320 320 321 320 318 318 317 316 316 316 318 322 323 322 321 320 323 323 324 323 321 322 322 321 320 319 315 311 309 308
319 320 321 323 321 322 322 321 321 322 324 328 327 327 325 324 323 322 321 320 319 319 319 317 316 317 316 319 316 317 316 320 318 316 316 321 318 323 325 324 323 322 321 321 318 312 310 310 310
319 320 320 319 320 323 322 321 322 322 327 329 327 327 325 324 323 322 321 320 319 318 318 317 317 319 318 317 314 317 319 317 317 318 317 321 320 322 324 324 323 322 322 320 316 313 311 310 310
319 320 320 318 318 320 321 318 319 324 327 329 327 325 324 323 322 321 320 320 320 319 318 317 317 317 316 315 315 316 315 315 315 315 317 319 318 319 322 324 324 322 321 318 316 312 311 312 311
320 319 319 318 318 319 320 319 322 324 325 325 324 324 323 323 322 321 320 319 319 318 318 317 316 316 315 315 315 315 315 315 316 316 317 317 317 318 321 323 324 324 321 318 315 313 311 312 311
321 319 319 321 320 320 320 321 319 323 325 324 322 321 323 323 322 320 320 319 318 318 317 317 316 315 314 314 314 315 315 317 320 318 316 316 316 318 321 323 324 324 319 319 316 313 312 312 312
321 320 321 323 322 320 320 322 320 324 328 324 322 322 323 323 322 321 320 321 319 318 317 317 316 315 314 314 314 315 318 319 319 319 318 317 318 320 321 323 325 323 320 319 316 313 312 312 313
320 320 321 321 320 323 327 326 322 320 325 326 322 323 324 323 322 321 321 322 320 318 317 318 317 317 316 315 315 316 318 321 322 324 323 323 322 321 323 325 325 324 322 319 317 314 312 313 313
319 319 321 324 325 324 329 329 324 322 319 326 326 322 325 324 323 323 323 322 322 319 318 318 317 317 316 316 317 318 321 323 323 324 324 324 323 325 325 325 325 324 322 320 317 314 313 313 312
318 319 322 327 327 329 329 327 325 321 319 319 325 325 322 325 324 323 323 323 322 320 318 317 317 319 320 321 321 322 322 323 324 324 324 324 323 324 325 325 324 323 321 319 315 313 313 311 309
319 319 320 326 329 329 328 327 322 320 319 319 321 325 324 322 325 323 322 323 323 322 318 317 319 320 322 323 324 325 325 325 324 324 324 324 324 324 325 325 323 323 321 318 315 313 311 310 310
319 320 322 324 331 331 328 328 326 320 320 319 317 325 325 324 324 324 323 323 323 324 322 319 320 322 322 323 325 326 327 327 326 325 324 325 325 325 324 324 323 322 321 317 315 313 312 311 311
319 321 323 323 325 328 325 322 318 319 320 318 318 319 322 324 324 324 324 324 324 323 323 322 322 322 322 321 324 326 327 327 327 327 326 325 325 324 322 322 320 320 319 316 313 312 312 312 310
317 319 322 326 327 324 322 321 319 318 318 317 315 316 316 321 324 324 323 323 324 325 325 325 323 322 322 323 324 326 327 328 328 326 325 324 323 322 323 321 319 318 317 315 312 312 312 310 307

GFSSGP_925_thetae_087.txt.gz
Theta_e
314 315 318 313 309 308 313 313 313 318 323 323 322 323 328 331 335 329 327 334 338 345 341 337 331 331 337 334 333 331 330 322 322 323 330 333 333 331 327 323 326 331 331 331 332 331 331 329 327
315 320 317 307 309 311 311 310 315 323 324 323 323 324 333 333 330 329 327 329 340 343 339 337 329 326 332 335 333 330 329 331 332 333 334 334 333 328 323 322 329 331 331 332 332 332 331 329 324
313 317 310 309 307 312 313 312 315 324 323 322 321 324 331 332 333 334 331 333 339 340 341 339 332 324 326 329 336 329 325 325 325 328 329 333 333 327 325 325 330 332 331 332 331 328 323 321 322
314 309 306 311 313 311 313 313 313 326 324 321 321 325 324 325 332 332 329 328 337 337 340 339 333 331 324 327 329 334 325 325 324 326 331 334 334 327 324 327 330 331 330 329 325 320 320 321 323
314 305 308 310 310 311 311 312 319 325 325 323 323 325 324 328 329 330 330 328 333 334 336 339 333 329 328 329 326 332 330 324 320 327 334 334 333 325 322 323 327 327 324 323 319 320 321 322 323
310 305 310 311 311 312 311 315 326 326 324 323 325 327 327 328 332 332 333 329 328 328 332 336 334 332 330 327 327 327 331 323 322 328 333 334 332 325 321 319 320 321 321 319 319 319 322 323 323
311 310 312 311 312 312 313 319 326 326 326 327 324 329 327 333 332 332 333 330 329 328 329 331 333 333 331 327 330 328 329 323 317 332 333 333 331 325 320 318 319 320 319 317 318 317 320 323 323
308 309 313 311 312 312 311 321 324 326 326 324 324 331 326 328 331 329 329 329 330 330 331 328 330 334 333 331 329 328 328 323 324 333 333 332 331 327 319 317 317 317 317 317 317 317 316 321 323
307 311 311 312 312 312 312 320 326 325 326 326 328 325 327 333 329 328 327 327 329 329 329 329 327 326 331 333 330 328 327 331 327 333 333 332 333 329 317 316 316 317 317 318 316 316 315 319 322
309 309 312 311 311 312 314 321 325 328 328 328 327 327 324 331 331 330 329 326 325 326 326 328 326 327 325 332 330 329 327 325 332 332 333 334 334 329 318 315 316 317 317 318 317 316 314 314 314
311 313 312 313 313 311 311 325 325 327 330 331 330 332 325 333 331 330 329 327 325 324 328 330 329 329 329 324 327 326 325 325 332 334 334 334 334 329 321 317 315 317 317 318 318 316 315 314 312
313 312 312 313 314 319 318 324 328 326 329 333 334 329 333 334 333 331 329 327 325 325 328 328 327 328 328 328 329 326 324 328 331 332 332 333 333 329 324 320 316 316 318 318 318 317 316 313 309
312 314 315 314 315 318 321 323 324 329 332 332 333 333 333 331 330 329 329 328 326 327 327 327 325 328 327 326 325 324 324 329 330 331 331 331 331 328 325 322 317 316 318 318 319 319 318 314 309
315 315 315 314 315 317 321 322 323 323 331 333 332 331 330 329 328 327 327 326 326 326 326 327 325 326 325 324 322 323 326 327 329 328 330 330 329 326 325 323 317 316 318 318 319 318 316 311 308
316 316 315 316 315 318 320 321 322 319 332 334 332 329 329 326 327 327 326 325 324 324 326 326 326 325 324 323 320 321 324 325 326 325 327 327 325 325 323 322 316 317 318 319 319 316 313 309 307
317 316 317 316 318 319 320 320 319 320 334 333 330 328 326 326 325 325 324 323 323 322 322 322 325 324 323 322 322 322 322 323 323 323 323 323 323 323 320 319 316 318 318 319 319 316 312 308 307
316 317 318 318 317 319 320 320 318 318 328 331 329 327 325 323 321 323 322 322 321 320 320 319 320 321 322 319 321 321 320 320 322 320 318 318 318 318 318 318 317 318 319 319 319 316 311 309 308
317 318 319 319 319 321 320 320 319 319 326 330 330 327 323 322 321 322 321 320 321 319 318 317 318 320 319 319 318 320 320 317 324 324 321 319 320 319 319 318 319 319 320 320 319 317 311 310 308
317 318 318 317 317 320 319 319 319 319 322 327 329 327 322 322 321 322 321 319 319 319 318 319 318 318 319 316 319 321 321 323 320 323 323 321 320 323 324 320 321 322 320 321 319 316 311 309 308
317 318 318 317 317 317 318 319 316 321 324 327 328 325 322 321 322 322 322 320 319 318 318 318 318 317 317 316 317 318 321 316 316 317 317 317 318 321 322 323 323 322 321 321 320 316 310 309 309
317 318 318 318 318 316 318 318 317 321 325 327 325 323 322 321 321 322 321 320 319 318 318 317 318 317 317 317 315 315 316 315 317 316 318 319 320 320 320 322 324 323 321 321 320 315 314 310 310
319 318 319 319 318 321 318 320 317 319 325 327 325 323 322 322 320 321 319 318 318 318 318 317 317 317 316 316 315 314 314 315 316 316 316 316 318 318 318 320 323 324 323 321 319 316 314 312 311
319 319 319 319 320 319 320 320 317 324 326 325 323 322 321 322 320 320 319 318 317 316 317 317 316 317 316 315 315 314 314 315 315 316 316 316 316 317 319 321 322 323 324 323 320 317 313 312 311
319 319 319 319 319 322 324 323 321 319 324 325 323 321 320 322 321 320 319 319 317 318 317 317 317 317 317 315 314 314 314 314 315 315 318 317 317 319 318 320 320 321 323 324 322 318 315 312 311
317 318 320 321 322 323 324 328 324 320 318 322 323 322 320 321 321 320 319 319 319 317 317 317 317 316 316 315 314 314 314 315 316 316 317 319 318 318 315 314 318 320 323 324 323 319 317 313 312
315 317 321 324 324 323 327 327 323 320 319 317 322 322 320 321 321 320 320 319 320 319 317 317 316 316 316 315 314 314 314 315 316 317 318 318 318 317 316 318 320 320 323 324 322 319 317 313 312
315 318 317 321 326 327 324 324 321 319 319 317 321 321 320 323 321 320 320 321 321 320 319 317 317 316 316 316 315 315 315 316 318 318 319 320 321 322 322 322 321 322 325 324 322 319 317 313 312
316 317 321 321 329 330 325 325 324 321 319 317 319 323 321 322 323 321 320 321 321 321 320 318 317 317 316 316 316 316 316 317 318 320 321 322 323 323 323 323 323 323 324 323 321 318 315 312 312
317 317 320 320 321 323 325 322 318 321 319 318 315 320 323 321 322 323 322 321 322 321 321 318 317 317 316 317 318 319 320 321 321 322 322 322 323 324 323 323 323 323 322 321 318 317 315 312 311
315 317 319 322 325 322 320 321 316 317 315 316 317 315 316 322 321 322 322 322 322 322 322 319 317 317 317 319 320 321 322 323 324 325 324 323 323 324 323 323 322 321 322 322 319 316 314 311 310

GFSSGP_925_thetae_090.txt.gz
Theta_e
314 315 318 311 309 307 312 313 312 315 321 321 321 323 327 330 333 326 328 333 336 341 340 336 334 333 334 332 339 338 337 336 334 330 329 330 330 331 331 329 330 330 330 330 330 330 329 328 327
316 319 315 305 309 311 311 309 313 317 322 321 321 323 330 332 329 328 328 327 340 343 341 337 335 339 335 329 337 338 337 336 331 329 330 331 332 332 328 331 331 331 331 332 331 330 329 326 322
312 316 309 307 306 312 311 311 311 317 321 321 320 323 331 330 330 332 330 330 340 343 340 338 335 337 337 331 327 329 332 328 323 329 331 330 330 329 331 331 331 331 331 332 332 331 328 322 316
313 308 304 310 312 311 312 312 311 317 323 320 320 322 322 325 331 332 330 331 337 340 339 337 335 335 334 332 329 326 323 328 322 323 329 330 330 330 332 331 331 331 332 332 331 328 323 323 314
311 304 308 310 310 310 310 310 310 322 323 322 321 323 324 325 328 329 332 328 337 337 338 337 334 333 332 331 328 326 328 332 333 334 332 331 331 331 332 333 332 331 330 327 322 320 323 321 316
308 304 309 310 310 310 310 310 320 322 323 323 324 325 325 327 330 330 331 332 331 335 334 335 332 330 334 330 328 327 326 330 332 332 332 331 330 331 332 332 330 328 322 320 321 321 323 321 318
310 308 310 310 311 312 312 318 324 326 324 326 324 327 325 332 330 331 331 331 330 328 329 333 333 333 332 333 330 327 328 329 332 334 330 331 330 330 331 330 327 321 319 320 322 322 323 319 318
306 308 313 310 312 311 311 320 323 323 324 323 322 328 326 328 330 331 331 330 330 329 329 330 334 330 329 331 327 328 327 327 325 331 333 331 329 328 329 327 321 319 319 319 322 323 321 321 319
306 310 310 312 311 312 310 317 323 324 325 324 326 326 327 331 329 329 329 329 329 329 328 329 330 332 333 330 331 330 327 324 325 331 326 331 327 327 325 322 318 318 318 318 320 322 322 321 317
309 309 311 309 310 312 313 313 323 327 327 326 327 326 331 331 329 329 327 326 328 328 329 329 328 327 330 333 331 329 326 323 323 329 330 331 325 324 321 319 317 317 317 317 317 321 322 321 315
309 312 311 312 311 310 311 316 323 326 327 325 327 328 324 330 331 331 330 329 326 325 326 328 329 327 327 329 331 330 327 325 327 329 331 332 327 323 318 318 318 317 316 315 316 319 319 316 313
312 310 311 312 313 316 316 320 327 323 325 329 329 330 326 333 332 330 330 329 326 324 327 328 328 328 328 328 331 328 327 323 322 327 330 332 329 321 317 317 317 317 317 315 315 314 313 313 310
311 312 312 313 313 313 319 322 324 325 329 332 332 331 333 331 330 330 330 328 327 325 327 326 327 326 327 328 329 327 324 323 322 330 328 331 328 319 316 317 317 317 317 316 314 313 312 310 309
313 313 313 313 313 314 319 319 324 322 331 332 331 332 330 329 329 328 328 328 327 326 326 326 326 325 327 327 326 325 324 323 322 328 330 331 328 319 315 316 317 317 318 317 317 316 313 311 309
314 316 313 313 314 314 314 319 322 320 331 332 331 329 327 326 327 327 327 326 326 325 326 325 326 325 324 325 325 324 325 323 319 328 329 330 327 321 318 316 316 317 318 318 318 315 312 310 307
316 315 316 314 315 317 318 319 317 319 332 331 329 327 326 326 325 326 326 325 324 323 324 324 326 324 324 324 323 323 323 325 327 329 325 325 326 325 321 317 316 317 318 317 317 315 312 308 307
314 316 315 315 316 318 319 320 317 319 331 330 328 326 325 324 322 324 324 323 323 322 322 323 325 324 322 321 320 319 320 323 326 326 326 325 322 326 323 318 316 318 318 318 317 313 313 307 306
317 317 316 317 317 317 319 318 317 318 320 328 327 326 324 322 322 322 322 321 321 320 321 320 321 321 320 319 318 321 323 324 325 325 325 325 325 325 324 319 316 318 318 318 316 316 310 308 308
315 316 317 315 315 317 315 314 314 315 318 322 325 327 322 320 321 322 321 320 320 319 319 319 319 320 319 320 321 322 323 323 321 321 320 320 322 323 321 317 317 318 318 318 318 314 310 308 307
316 317 317 315 315 315 315 316 315 316 319 319 323 323 321 320 322 322 321 320 320 319 318 318 318 317 319 320 320 320 320 323 323 319 315 315 315 318 318 318 318 318 318 319 319 316 312 309 308
315 317 316 316 315 315 315 316 316 317 321 324 324 322 320 321 320 321 322 320 319 319 318 318 319 318 318 318 319 319 320 319 321 322 320 320 320 320 319 320 319 319 321 319 319 318 317 310 308
318 316 316 316 318 319 316 319 316 316 320 325 325 323 321 319 319 319 320 321 319 319 318 318 319 318 317 317 318 320 320 317 316 317 319 320 321 320 321 321 323 322 321 321 320 319 318 314 310
318 316 317 318 317 317 318 319 316 321 321 320 322 323 321 319 319 319 320 319 319 319 318 318 318 317 317 317 316 316 317 316 316 316 317 317 317 319 319 319 319 322 323 323 322 320 316 313 312
317 318 318 318 317 321 319 319 319 317 320 320 321 321 322 319 319 318 319 318 317 318 318 317 317 317 316 317 316 314 314 315 315 316 317 317 316 316 317 318 318 319 321 322 323 320 318 315 312
316 317 319 320 321 323 319 325 321 318 316 318 319 320 320 320 320 318 317 318 316 316 316 315 316 315 316 315 315 315 315 314 314 314 315 316 316 316 316 316 317 317 319 321 322 323 320 317 313
316 317 319 324 322 321 324 328 323 319 318 317 316 318 318 318 320 319 318 318 317 316 315 316 316 315 315 315 314 314 314 314 314 314 315 315 316 316 315 315 316 317 318 320 321 322 321 320 317
314 317 316 317 322 324 322 322 319 319 318 316 314 319 318 318 319 319 318 318 318 317 316 316 316 316 316 316 315 315 314 314 314 314 315 315 316 316 316 317 317 318 318 319 320 321 322 320 317
312 313 317 319 324 327 323 324 321 319 318 316 316 320 318 319 319 319 318 318 318 319 317 316 317 317 316 317 316 316 315 314 314 314 314 315 316 316 316 318 319 320 321 321 321 320 321 318 317
314 315 318 318 319 321 322 320 317 318 318 318 314 315 319 318 320 320 319 319 319 319 319 317 316 316 316 316 316 316 315 315 314 314 314 315 316 317 317 318 320 322 322 322 321 321 321 319 315
313 314 315 318 319 320 318 319 316 316 316 315 314 313 315 318 317 320 319 318 319 320 320 319 318 317 317 316 316 316 315 315 315 315 315 316 317 317 318 320 321 322 321 321 320 321 320 316 313

GFSSGP_925_thetae_093.txt.gz
Theta_e
313 314 318 312 316 315 317 317 314 316 320 323 322 324 328 329 332 329 329 336 338 339 339 337 337 337 341 343 341 339 336 335 332 330 328 329 333 335 335 335 334 333 332 331 330 330 329 328 327
317 319 314 312 318 318 317 314 315 318 321 323 322 324 328 332 330 330 331 333 335 341 339 338 334 335 340 342 342 339 335 332 331 332 335 333 334 335 334 332 332 331 331 330 330 328 327 326 325
313 315 316 315 314 317 317 315 316 315 319 323 323 324 331 331 331 333 330 329 335 341 340 339 336 337 340 341 342 339 335 333 330 332 334 334 333 333 330 329 330 331 331 331 330 327 324 315 313
312 312 310 317 316 316 316 316 314 314 323 322 322 324 323 324 332 331 330 329 337 342 341 339 333 336 333 342 342 338 335 333 330 331 332 333 331 330 329 330 331 331 330 331 330 323 314 312 311
310 311 315 315 315 314 313 313 313 316 322 324 322 325 325 325 328 329 330 330 332 338 338 339 335 335 332 339 341 338 337 333 331 326 330 331 331 331 330 331 331 331 332 331 329 319 314 312 312
315 311 316 317 314 313 314 313 316 320 323 323 324 325 327 328 331 329 329 330 330 332 334 334 336 333 333 333 339 338 335 330 335 331 325 330 330 329 329 330 332 332 331 326 324 320 315 313 314
316 315 315 313 315 315 315 317 324 323 325 326 325 328 327 329 331 328 330 330 331 329 330 329 330 330 328 329 330 331 328 328 333 332 329 328 330 329 329 331 332 330 325 322 323 321 317 315 315
313 315 315 314 316 316 314 319 322 323 322 323 325 330 329 328 330 330 328 330 330 329 328 329 329 325 327 326 331 327 328 330 332 330 331 329 329 330 331 330 329 322 320 321 322 321 318 316 315
309 317 317 316 314 316 313 316 320 324 327 325 326 327 327 331 330 329 330 330 330 329 329 328 331 331 327 329 330 330 329 333 333 333 332 330 332 332 330 329 322 320 322 322 322 320 318 317 315
315 317 316 314 313 315 315 314 315 327 328 328 328 327 331 330 329 329 330 331 330 329 329 328 328 331 332 332 330 329 334 335 334 333 331 331 332 330 329 324 319 320 323 323 322 320 318 318 319
313 317 314 315 314 313 314 315 320 327 326 327 327 327 330 330 330 330 330 329 328 327 328 327 328 328 329 330 330 331 331 333 332 332 330 329 330 329 325 321 318 320 322 325 322 321 320 319 317
315 314 314 315 313 314 316 318 324 326 324 331 326 332 327 329 330 331 331 331 328 326 326 327 328 329 328 327 331 329 326 327 331 330 329 328 328 326 324 321 318 317 323 324 323 321 318 313 311
313 313 313 313 313 315 316 319 321 325 325 332 333 330 329 332 333 331 330 329 327 325 326 326 327 327 327 327 328 328 326 324 327 329 330 327 327 324 322 318 317 316 317 319 321 320 315 312 310
315 313 315 315 316 315 317 318 322 321 325 334 334 333 332 331 330 329 328 329 326 325 325 327 326 326 326 326 326 329 326 324 326 326 326 327 325 322 319 317 317 316 316 318 317 315 313 310 308
316 317 317 316 316 315 316 318 322 321 332 334 333 330 329 328 327 327 327 327 326 326 325 326 325 325 326 327 327 328 325 325 326 329 326 328 324 319 318 317 317 316 316 315 314 312 310 309 308
318 316 318 315 316 317 318 322 320 318 331 333 333 331 329 327 325 324 326 326 324 325 325 325 324 325 326 324 325 324 324 324 326 326 328 328 323 318 317 317 317 317 316 315 314 312 309 309 308
316 315 317 317 317 319 321 323 320 322 328 330 333 331 328 327 324 323 326 324 322 323 324 325 324 324 324 324 324 324 324 323 326 328 327 327 323 316 317 317 317 317 316 316 316 312 310 308 308
317 319 318 318 318 317 318 319 319 317 324 328 332 331 328 326 324 323 324 322 322 322 322 323 323 323 323 323 324 324 323 323 322 324 325 324 324 317 316 316 317 317 315 314 315 313 310 308 307
316 317 318 318 317 317 318 317 318 319 318 322 329 332 328 326 323 322 322 321 320 320 321 321 321 322 322 322 322 322 323 322 322 324 320 322 323 323 321 317 316 317 316 316 316 311 309 307 306
318 318 319 318 316 317 318 318 319 318 319 321 323 329 329 326 323 322 320 321 319 319 319 320 320 320 320 320 320 321 321 321 322 324 321 322 322 323 324 322 317 317 318 317 316 315 309 308 306
318 319 320 318 317 317 317 319 320 319 320 322 323 325 328 326 324 323 322 321 320 319 319 319 319 319 320 320 320 321 322 322 322 322 323 322 319 319 319 321 318 317 318 318 318 316 312 310 307
317 317 318 318 318 319 318 321 320 320 320 320 325 326 326 325 323 323 323 321 320 320 319 318 318 319 319 319 318 322 321 321 320 320 319 318 317 317 318 318 317 317 317 318 318 318 315 312 311
318 317 318 319 319 319 319 322 321 318 321 322 322 326 326 325 324 323 322 322 321 321 319 318 318 318 318 318 319 319 318 320 320 319 318 318 315 316 316 318 319 318 318 319 320 319 318 315 313
317 318 318 319 320 324 321 322 322 321 322 322 322 322 326 325 324 322 321 321 321 320 319 319 318 317 317 317 318 317 318 318 318 319 320 318 316 315 318 318 317 318 320 321 321 321 319 318 315
317 319 319 323 324 324 320 322 322 321 320 320 322 321 325 325 324 323 322 321 319 319 319 318 318 318 317 317 317 317 318 317 317 316 317 318 319 318 318 319 319 319 319 319 320 321 321 320 317
316 318 319 321 324 323 324 327 324 323 322 320 320 320 322 324 324 323 322 320 319 318 318 318 318 318 317 316 316 316 316 316 317 317 316 316 317 317 317 316 316 317 318 318 319 320 320 321 321
316 318 317 318 322 324 323 324 322 321 322 319 319 318 321 323 324 324 322 320 319 318 317 317 317 317 317 317 316 315 315 315 314 314 315 316 316 317 317 316 316 316 316 317 317 318 318 319 319
314 316 320 319 320 319 321 324 321 321 321 321 320 320 322 321 322 323 322 321 320 319 318 316 316 316 316 317 317 316 315 315 314 315 315 316 316 316 316 316 316 317 317 317 318 318 319 318 318
314 315 316 319 321 321 321 322 323 323 322 321 322 320 319 322 322 322 322 321 320 320 319 318 317 318 317 317 317 316 316 315 315 315 315 315 316 317 317 317 317 316 317 317 319 320 320 319 318
313 315 315 318 318 322 321 320 318 321 321 320 321 319 316 322 322 322 322 321 320 320 320 319 318 318 318 318 317 317 316 315 315 315 315 315 315 316 316 317 318 319 318 318 320 320 318 318 318

GFSSGP_925_thetae_096.txt.gz
Theta_e
313 316 319 319 321 321 321 321 319 320 322 324 325 326 326 328 326 327 334 341 342 343 341 340 340 341 343 341 336 333 334 334 335 335 328 331 336 336 335 336 335 334 334 333 332 331 330 329 329
318 319 320 320 322 321 321 320 320 320 320 323 323 325 327 328 331 332 333 336 342 343 341 341 339 340 343 344 340 336 338 339 337 330 330 335 336 335 335 336 334 332 332 331 330 329 329 328 326
317 318 321 321 321 320 320 320 320 320 319 322 323 326 327 328 332 333 335 333 337 339 342 341 340 339 344 344 341 338 338 338 333 331 334 335 336 336 336 334 332 331 331 330 330 328 326 321 321
316 317 318 321 321 320 320 320 320 320 323 323 325 326 327 327 329 333 334 333 335 339 343 341 338 338 343 344 342 340 341 336 334 334 335 335 334 334 334 332 331 330 330 329 328 326 317 315 315
317 318 318 319 320 320 320 319 319 320 322 325 326 325 327 327 327 333 335 334 336 338 341 338 337 337 340 343 342 341 338 338 335 336 335 334 334 333 331 330 330 330 329 328 327 317 311 311 312
319 318 318 318 319 319 319 319 319 322 323 324 326 327 327 330 331 331 334 334 335 335 337 333 329 328 336 342 343 341 340 338 335 335 333 333 333 330 329 330 330 330 329 324 316 312 312 311 311
318 318 317 317 318 319 319 319 322 321 321 323 326 327 326 330 332 334 333 334 335 334 333 331 323 326 326 336 342 340 339 336 335 334 333 331 329 328 329 330 330 332 328 322 315 312 313 312 312
318 318 317 316 317 319 319 319 321 322 322 327 327 326 327 331 333 333 333 334 333 332 332 330 325 325 330 331 334 334 335 334 336 334 333 330 327 326 330 332 332 331 325 324 316 314 315 313 313
317 318 319 317 317 317 319 319 320 323 325 327 328 328 329 332 332 332 332 335 333 328 330 330 325 322 327 327 326 329 333 335 335 334 334 331 332 331 332 332 331 327 323 324 316 315 315 314 314
317 318 318 318 317 318 319 320 320 322 323 326 327 328 329 332 332 332 333 333 334 334 328 329 327 326 327 327 330 326 328 333 335 333 333 330 332 331 331 331 327 322 322 324 317 316 316 317 318
317 318 318 318 317 318 318 319 320 322 322 322 323 324 329 333 333 333 333 333 333 332 332 328 331 331 331 331 332 331 328 330 333 332 330 331 331 331 330 328 325 328 325 325 321 319 320 321 320
318 318 318 318 318 318 318 319 320 321 322 322 327 328 331 334 334 332 334 333 333 332 331 330 329 331 331 330 331 330 330 331 332 331 331 332 332 331 327 325 326 328 327 326 324 322 323 322 320
319 318 317 317 317 317 318 319 320 320 321 322 327 333 333 332 333 334 332 330 331 331 329 330 330 330 329 331 331 330 330 330 331 331 329 331 331 329 325 324 326 326 326 326 325 324 323 321 319
317 317 317 317 317 318 319 319 319 321 321 324 331 333 334 334 334 332 330 329 329 327 328 329 329 329 328 328 328 329 329 330 332 332 330 330 329 326 324 324 324 326 326 326 325 323 320 317 316
317 317 317 318 318 318 318 319 319 320 324 327 331 333 333 332 331 330 329 328 329 328 327 327 326 327 325 325 326 328 329 329 329 331 329 328 327 325 324 323 322 322 323 323 323 320 317 314 313
318 318 320 319 318 318 320 320 322 323 325 324 328 332 333 332 331 328 327 328 328 325 325 325 325 325 325 325 324 326 328 327 327 329 329 326 325 323 322 322 321 320 321 321 319 317 315 314 313
318 319 320 320 319 318 321 321 324 324 324 325 326 330 332 332 330 328 327 327 326 327 323 324 325 323 325 325 325 326 327 327 326 328 329 326 324 323 323 322 321 319 318 318 317 316 316 315 314
320 320 320 319 319 320 320 322 322 322 321 323 325 329 331 331 330 327 326 326 325 325 322 323 323 323 324 324 325 325 326 327 327 327 326 325 323 322 321 321 321 319 317 317 316 316 316 316 315
318 318 319 319 319 320 320 318 319 322 322 323 325 329 331 331 329 327 325 325 323 324 322 322 322 322 324 324 324 324 324 326 326 326 326 325 323 321 320 321 321 320 319 318 317 317 316 316 314
318 318 318 318 318 319 319 319 320 321 322 323 324 327 330 331 330 327 325 325 324 323 323 321 321 322 322 323 323 323 323 324 325 324 323 324 322 320 320 321 321 320 320 319 318 317 316 315 312
317 317 318 318 319 319 320 319 318 319 323 324 325 326 327 330 330 328 325 324 324 323 323 323 322 321 322 323 323 323 322 322 322 322 323 323 323 322 320 320 320 321 320 320 318 317 317 316 312
316 316 317 317 318 320 319 319 317 321 322 322 322 327 328 329 329 329 327 324 323 323 324 323 322 320 321 322 322 322 321 319 322 322 320 319 320 321 321 322 321 321 321 321 319 318 318 317 315
316 316 316 318 319 320 320 321 318 320 323 323 322 323 328 330 330 329 328 324 323 322 323 322 322 319 320 321 321 321 320 319 321 323 322 321 320 322 321 320 321 320 321 321 321 319 319 319 319
317 319 320 321 322 324 322 320 320 321 324 322 322 324 328 329 329 329 327 325 325 323 323 321 322 320 320 321 321 319 320 319 320 321 322 323 322 321 319 317 318 318 321 321 322 322 321 320 319
316 320 323 326 325 324 320 321 320 322 323 323 323 323 327 329 330 330 328 326 325 324 323 322 321 320 320 321 321 320 320 320 319 320 321 321 320 319 317 317 317 318 318 321 322 323 323 323 321
317 320 321 321 324 324 321 324 323 323 323 322 324 325 326 329 330 330 328 326 325 324 322 322 322 321 319 318 319 319 320 320 320 321 320 320 319 318 318 319 317 315 316 319 320 321 323 323 322
316 318 317 318 319 322 324 324 324 323 323 323 323 322 325 328 329 330 329 326 324 324 323 322 322 321 321 320 319 319 319 319 320 321 320 319 319 319 320 320 321 321 320 321 322 322 323 323 322
314 315 319 320 321 321 320 321 323 321 321 322 323 323 324 326 328 329 329 327 325 324 323 322 322 322 321 321 321 320 319 319 319 320 320 320 319 319 319 320 320 320 320 320 321 321 321 321 321
312 315 316 317 320 322 322 321 321 321 321 322 323 323 324 326 327 328 329 327 325 324 323 321 321 321 321 322 322 321 321 320 320 319 319 319 319 319 319 319 319 320 320 320 320 320 321 321 321
318 316 315 318 317 320 321 321 320 321 322 323 323 324 322 325 327 327 328 328 326 325 324 321 319 320 320 321 321 321 321 321 320 320 319 319 318 319 319 319 319 320 319 320 320 321 321 320 320

GFSSGP_925_thetae_099.txt.gz
Theta_e
313 317 320 322 323 323 324 323 322 321 322 324 324 324 324 325 325 328 335 339 343 343 343 343 336 340 344 341 337 334 336 337 335 332 336 338 337 335 334 335 336 335 334 334 333 333 331 331 330
320 320 321 324 322 325 324 323 322 322 322 323 323 323 324 326 326 328 332 339 343 343 343 344 339 337 342 343 338 337 339 337 333 330 336 337 336 334 336 335 335 334 333 333 333 331 330 330 327
321 320 324 324 324 324 323 323 322 322 321 321 322 324 325 324 328 330 337 336 339 339 341 343 343 338 340 344 341 340 340 340 338 331 334 337 336 336 337 334 333 332 332 332 331 330 329 327 324
318 318 319 320 322 324 322 322 321 321 321 323 323 324 324 325 326 333 335 335 335 337 339 342 342 341 338 342 343 341 340 340 335 331 335 337 335 336 335 333 331 331 331 331 329 328 326 321 321
317 320 320 321 321 322 322 321 321 321 321 323 323 324 323 325 329 334 336 335 335 336 339 342 342 341 339 338 343 341 341 339 334 333 337 335 335 336 334 331 330 329 330 329 328 325 322 317 318
319 319 321 322 322 321 322 321 321 321 322 322 323 323 324 331 331 332 336 335 336 336 340 340 337 336 336 336 335 340 341 338 332 334 336 335 333 335 333 330 330 329 328 327 324 316 312 315 316
321 321 321 321 321 320 322 322 322 322 322 322 323 324 324 328 334 336 335 336 337 337 337 337 332 330 325 324 324 333 341 339 333 334 335 336 336 333 330 331 330 327 323 313 310 310 311 310 311
319 320 320 321 320 319 321 321 321 322 322 323 324 322 324 335 336 335 335 336 335 335 335 336 328 324 326 326 325 327 340 338 334 335 336 335 334 331 330 331 329 323 317 312 312 311 310 310 312
319 318 321 322 322 320 320 320 321 322 323 322 323 326 326 331 333 333 335 337 337 335 334 334 333 328 324 327 325 328 336 336 335 334 335 334 334 329 331 332 329 321 316 313 314 313 312 311 313
318 319 320 322 320 319 319 320 321 321 322 322 323 324 326 332 333 333 334 334 335 337 333 334 333 326 326 329 326 329 332 334 335 336 335 334 333 332 331 333 330 326 316 315 315 314 312 315 316
318 319 320 321 320 319 319 319 320 320 321 322 323 323 325 329 333 334 334 334 334 334 334 332 334 327 327 331 327 331 327 328 335 335 334 333 332 330 333 332 330 328 319 321 318 316 318 319 318
319 319 319 320 320 319 319 320 319 320 321 321 322 323 327 330 333 335 334 335 334 333 333 333 333 333 332 330 331 334 331 327 332 335 332 333 331 330 332 332 329 328 326 323 322 320 322 322 320
320 320 320 320 320 319 319 319 319 319 320 320 321 323 328 332 332 333 335 334 332 333 333 332 332 333 334 332 333 334 332 328 333 333 331 332 331 332 330 329 329 328 327 324 324 323 325 324 321
319 320 320 320 320 320 319 319 319 320 320 321 322 325 330 333 333 334 335 333 332 332 332 331 332 332 333 334 334 331 330 328 330 328 331 331 331 330 328 328 329 328 328 326 325 324 325 323 320
318 319 319 319 320 320 320 320 320 321 320 320 324 327 331 333 333 333 332 332 332 331 331 330 330 331 331 332 332 332 330 330 329 329 329 331 331 328 326 328 328 327 327 327 326 326 323 321 319
320 320 321 321 321 321 321 321 321 322 322 325 325 326 331 333 332 331 331 331 330 331 330 329 328 329 330 329 331 331 330 330 329 330 326 328 328 327 325 327 328 327 327 327 326 324 321 318 316
319 321 322 322 322 321 320 322 321 324 325 325 325 325 327 332 333 332 330 330 330 330 328 326 326 328 328 326 325 327 329 329 330 330 327 327 328 325 324 324 324 326 326 325 325 322 319 318 316
319 321 321 322 323 322 321 321 321 322 324 324 324 324 326 329 333 332 330 330 329 328 327 326 326 326 325 325 325 325 325 328 329 330 329 328 327 324 323 318 323 323 324 323 322 320 319 319 318
319 321 323 322 323 322 322 323 322 321 321 323 324 324 325 328 331 331 330 329 328 326 326 324 326 324 324 324 325 326 327 327 328 329 328 326 325 323 319 318 323 322 322 320 319 320 320 320 319
318 320 322 321 321 322 322 323 322 321 321 321 323 324 324 327 331 332 330 329 327 326 326 324 324 324 324 324 324 324 326 327 328 328 327 326 324 320 323 323 323 320 320 320 320 320 321 320 319
318 320 322 322 321 321 321 322 322 322 321 320 321 324 324 325 331 332 330 329 328 326 326 325 324 325 322 323 324 324 324 325 326 326 325 323 322 320 317 321 322 321 321 321 320 321 320 320 318
316 317 318 319 320 322 321 324 323 322 320 321 323 324 325 325 328 332 331 329 329 327 326 326 325 323 323 323 324 324 325 323 324 324 324 323 321 319 320 321 322 322 322 321 321 321 320 321 319
315 316 317 317 320 321 321 322 322 323 322 321 323 323 323 326 329 331 331 328 328 328 326 325 325 323 324 323 324 323 322 322 323 323 323 323 322 321 321 321 321 322 322 322 322 321 320 321 320
315 316 317 319 320 323 322 323 324 323 322 324 324 323 324 326 330 331 331 328 327 327 325 324 324 322 322 322 323 323 322 321 322 322 322 322 322 322 320 321 322 323 323 322 322 321 320 321 321
315 317 320 322 325 326 323 324 324 322 322 324 323 324 326 328 330 331 331 330 328 327 325 325 324 322 322 322 322 321 320 320 322 323 322 321 321 321 320 321 322 322 323 322 321 320 320 323 323
316 317 323 321 324 326 325 324 323 323 322 323 324 324 325 328 330 331 331 330 328 328 327 324 324 323 322 323 323 322 322 320 319 322 323 322 322 322 322 321 318 318 318 317 320 321 319 319 323
313 318 318 321 321 324 327 324 323 324 323 323 323 323 324 328 330 331 331 330 328 328 327 326 325 324 323 323 324 323 322 321 319 320 321 322 323 323 322 320 320 319 319 319 317 320 320 320 321
313 314 318 319 323 323 321 322 324 324 322 323 324 324 324 325 329 331 331 331 328 328 327 326 325 325 324 323 323 323 322 322 321 320 321 323 322 320 320 321 320 320 318 319 320 320 321 321 322
312 314 315 317 318 322 324 324 323 323 322 323 323 324 324 325 328 330 331 330 329 328 327 326 325 325 324 324 323 323 323 323 322 322 323 322 321 321 321 321 321 321 321 321 322 322 322 322 322
318 314 315 319 318 318 322 323 322 322 321 322 325 324 325 325 327 329 331 331 330 328 327 327 326 325 325 324 324 323 323 323 321 322 322 322 322 321 321 320 320 321 321 321 321 322 322 322 322

GFSSGP_925_thetae_102.txt.gz
Theta_e
313 313 318 322 323 323 325 324 323 322 322 323 324 323 323 322 323 329 336 342 340 344 346 339 336 341 341 337 335 334 336 337 338 338 338 338 336 336 334 334 335 334 335 335 334 333 331 332 327
317 320 321 323 325 324 325 324 323 322 323 323 322 322 323 324 326 329 339 341 341 339 345 345 337 338 342 340 337 337 337 337 338 338 338 338 338 335 335 335 335 334 334 334 332 331 331 329 326
318 323 321 324 326 324 325 323 322 322 322 321 321 322 323 324 329 335 337 337 338 338 339 342 344 338 339 343 340 338 337 339 335 333 326 335 335 336 336 335 333 333 333 333 331 331 329 324 325
320 320 319 319 320 322 323 323 322 321 321 322 322 323 322 325 325 334 336 335 335 336 338 340 343 343 338 338 343 339 337 339 336 333 329 329 333 336 335 334 332 332 332 332 330 330 324 323 322
318 319 321 322 322 322 322 322 322 321 321 322 322 322 323 323 333 335 335 335 335 335 338 341 341 341 340 339 339 342 338 338 338 332 331 334 334 336 335 332 331 330 330 330 328 324 320 321 322
319 319 320 320 322 322 322 322 321 321 322 322 322 323 324 329 331 333 337 335 336 337 337 342 339 339 341 339 338 340 341 336 338 333 334 334 328 332 333 331 331 331 327 325 321 312 317 319 321
318 321 322 322 322 322 322 323 322 322 322 322 322 323 323 332 336 336 336 336 338 339 339 340 339 335 336 340 339 338 337 333 336 334 336 330 330 332 332 331 331 329 325 313 309 310 314 315 319
319 320 320 320 321 322 322 321 322 321 321 322 323 323 324 338 337 336 337 337 337 337 336 337 336 332 331 330 331 331 333 325 325 334 337 323 332 334 331 331 329 325 313 309 308 309 312 316 319
319 320 320 320 321 322 322 321 321 321 321 321 322 323 325 332 335 335 337 338 338 336 336 335 333 331 329 328 326 325 325 324 323 334 330 327 333 332 331 330 326 320 310 309 309 309 310 314 318
319 320 319 319 321 322 321 320 320 321 321 321 323 323 324 332 333 333 335 336 339 339 336 336 335 333 331 327 326 326 324 324 322 334 329 330 334 333 332 329 323 315 311 311 310 309 310 312 318
319 320 319 319 320 321 320 320 320 320 320 321 321 323 324 332 334 335 334 334 334 335 338 335 334 332 326 328 325 324 322 324 325 332 329 331 334 332 332 329 323 316 314 313 312 311 311 312 318
319 319 319 319 320 320 320 320 319 320 320 320 321 321 323 326 330 335 336 335 335 336 335 334 333 330 328 331 326 328 328 331 334 334 332 334 333 332 332 330 323 317 315 315 313 313 318 315 317
320 320 320 320 320 320 321 320 320 320 320 320 320 321 324 328 330 332 334 336 335 333 334 334 333 332 329 329 328 329 329 326 328 332 333 333 332 333 332 330 327 321 321 320 314 320 321 320 318
322 321 320 320 320 321 321 321 320 320 321 321 321 322 324 328 331 333 337 336 333 333 333 332 333 333 333 332 329 331 329 324 326 328 333 332 332 333 332 330 329 324 324 323 318 322 324 323 321
320 320 319 319 319 320 320 320 320 321 321 321 321 321 324 329 331 334 335 334 333 332 332 331 332 332 332 332 332 332 332 327 328 330 330 331 332 332 330 329 329 328 326 325 323 323 325 323 321
319 320 322 321 320 321 321 321 322 322 322 321 320 324 326 330 331 332 333 332 332 332 331 330 330 331 331 331 331 332 331 331 330 327 326 330 330 330 328 328 328 327 327 327 325 326 324 322 320
316 320 320 321 321 322 322 322 322 322 322 323 325 324 325 330 333 332 332 331 332 332 330 330 329 328 330 330 329 331 331 330 330 328 328 328 327 328 328 328 328 329 327 328 327 325 323 320 319
316 319 320 320 321 321 323 323 321 322 322 324 325 325 324 325 334 333 332 331 331 331 329 328 328 328 328 327 326 326 330 331 331 328 326 328 325 327 327 327 327 328 327 327 326 323 321 318 317
314 316 320 321 321 322 324 324 322 323 323 322 323 324 324 325 330 334 332 331 330 329 327 326 327 326 325 325 325 326 326 328 331 330 327 325 326 327 326 325 325 326 326 325 324 322 319 318 318
312 316 318 319 320 321 323 323 322 322 323 323 321 322 323 325 332 334 332 331 329 327 326 326 327 325 325 325 325 325 326 326 328 330 328 325 327 325 324 323 323 324 325 324 322 320 319 320 320
314 314 319 319 319 321 323 323 323 322 322 323 322 322 322 324 332 334 333 331 329 326 326 325 326 325 325 326 324 324 324 326 327 328 328 326 326 324 322 317 318 322 322 321 320 320 320 322 320
315 315 315 316 318 321 321 324 323 323 323 324 323 323 321 324 325 333 332 332 329 327 326 326 325 325 324 324 324 325 326 326 326 328 326 325 325 323 320 319 321 318 321 320 319 320 321 321 318
317 315 314 315 318 319 319 321 321 322 322 323 323 323 325 325 326 334 332 331 330 327 326 326 326 324 324 324 325 325 323 324 324 324 324 324 323 321 320 322 320 319 321 320 320 321 321 322 319
317 316 316 316 317 321 319 320 322 322 322 322 323 323 325 325 327 332 332 330 330 328 326 326 325 324 324 324 324 324 324 323 324 323 322 321 320 320 320 318 319 322 321 321 320 321 320 320 321
316 317 319 319 321 321 319 322 323 323 323 323 324 325 326 326 330 331 332 330 329 328 326 325 324 323 324 324 325 324 323 324 323 323 322 321 320 319 319 316 319 321 320 317 319 321 321 321 321
314 318 320 324 323 324 323 330 325 324 323 323 324 324 327 327 331 331 332 330 329 328 325 325 324 322 322 323 323 323 322 323 323 322 322 321 320 319 319 318 321 319 320 319 319 320 321 320 320
312 317 317 321 321 323 324 324 326 324 323 323 323 325 326 329 330 331 332 331 329 328 326 326 324 323 322 323 323 322 321 322 322 322 322 322 322 322 321 320 320 320 319 316 321 320 319 320 320
311 312 316 319 322 324 322 323 329 327 326 324 324 325 325 326 330 331 331 331 330 329 328 326 326 324 323 324 323 322 322 321 320 323 323 321 321 321 321 321 320 320 320 320 318 318 319 321 320
311 312 314 316 319 323 325 322 323 324 326 324 325 325 326 325 328 331 331 331 330 329 329 327 326 325 324 324 324 324 322 322 320 320 322 323 322 322 323 321 320 321 320 320 320 320 319 319 320
318 315 313 316 317 320 321 321 321 323 323 323 323 324 325 326 327 330 331 332 330 329 329 328 327 326 326 325 324 323 323 323 322 321 319 319 323 322 322 322 322 321 321 320 320 320 322 322 323

GFSSGP_925_thetae_105.txt.gz
Theta_e
313 312 313 317 319 315 317 319 318 320 320 320 319 320 320 319 321 327 340 339 345 344 341 338 338 338 333 332 334 334 333 331 329 335 335 335 334 333 330 329 332 334 335 336 337 336 335 328 325
312 315 318 316 319 320 321 319 318 321 321 320 320 320 320 322 334 340 340 339 344 344 342 340 337 339 336 333 333 336 334 332 330 336 337 335 335 332 331 333 334 334 334 334 333 333 331 322 321
312 318 317 316 319 320 319 320 318 319 320 320 319 319 321 323 332 337 338 338 337 341 344 344 341 337 338 337 333 335 334 335 333 335 335 334 328 335 334 334 333 333 333 333 332 331 324 325 328
318 317 312 314 315 316 318 319 321 320 319 318 320 322 321 325 332 334 335 332 336 336 338 343 343 340 337 337 339 335 336 336 331 337 334 325 329 333 334 334 332 331 332 332 331 330 323 326 329
317 311 313 315 315 317 319 319 318 319 320 321 320 321 322 328 335 335 334 334 335 336 337 337 342 341 338 337 337 339 335 337 335 336 331 327 326 329 333 332 333 331 329 330 327 324 323 325 327
315 310 313 314 316 317 319 319 320 320 321 320 320 321 321 334 334 335 335 335 335 335 340 341 340 341 340 339 339 339 339 337 337 333 332 327 328 325 332 332 332 330 329 327 323 322 322 324 324
315 313 314 314 317 318 318 318 319 319 321 322 322 322 331 334 335 335 335 336 336 337 340 340 339 338 340 340 343 342 340 339 336 334 329 328 328 326 332 331 331 330 327 316 317 320 322 322 320
313 312 314 316 317 316 318 320 319 319 319 320 321 321 322 335 336 336 335 336 337 338 337 336 337 336 333 335 341 342 342 338 335 334 328 331 330 328 332 331 331 329 323 311 314 317 322 320 320
314 314 315 315 316 317 317 319 320 318 319 319 320 319 321 336 335 336 335 337 336 335 334 331 332 331 330 329 331 332 335 337 335 333 331 330 327 331 332 332 330 326 316 311 312 316 319 320 320
313 313 314 316 316 317 318 317 317 319 320 319 320 319 329 336 335 335 335 336 338 336 336 334 334 333 332 331 329 327 327 328 328 325 326 329 329 329 331 331 329 322 313 310 313 312 318 319 320
314 315 315 316 316 317 317 315 316 316 315 317 318 320 332 334 333 333 333 335 338 338 337 336 335 333 332 331 326 325 325 327 325 325 325 327 331 332 332 330 327 323 311 310 310 312 316 319 320
316 316 316 316 316 316 316 315 316 316 315 316 316 317 320 331 331 330 331 332 336 338 337 335 333 332 329 328 325 324 324 323 324 324 325 326 332 332 331 328 323 315 310 309 310 310 315 319 320
317 317 317 317 316 316 317 317 317 316 315 316 316 317 317 325 325 331 332 334 335 337 335 334 333 332 328 329 325 326 328 326 326 325 330 330 331 331 329 326 320 314 312 311 310 311 316 319 322
319 318 318 317 317 315 317 317 317 317 316 317 318 317 317 320 326 332 335 335 334 334 334 332 331 332 330 329 327 326 329 328 328 326 329 328 331 331 328 324 318 316 314 311 311 314 314 318 320
316 317 317 318 317 317 316 317 316 316 316 317 318 318 317 322 326 332 334 335 334 333 333 330 330 332 332 331 329 328 330 325 329 330 331 331 331 330 329 324 319 317 315 312 318 319 319 319 319
311 312 316 317 317 318 318 318 318 317 317 318 317 318 318 322 326 330 335 335 334 332 331 330 331 331 331 331 330 331 330 325 329 330 330 331 331 331 329 326 321 319 317 315 320 322 322 322 321
309 311 312 314 316 318 319 319 318 318 318 318 317 317 319 319 326 331 333 332 332 331 330 330 331 331 330 331 331 332 331 326 328 328 330 329 329 330 329 329 324 324 321 319 321 322 324 321 320
309 311 313 315 315 318 319 320 319 320 319 316 317 319 318 318 328 329 330 331 332 331 329 329 329 328 330 329 330 331 331 328 329 328 329 330 329 330 329 329 327 327 324 323 322 325 324 321 320
306 309 310 311 315 318 319 319 320 319 320 316 315 317 318 318 328 329 330 331 330 330 329 328 327 328 328 327 327 328 331 331 329 328 329 330 330 328 328 328 327 328 326 326 324 325 323 320 319
307 309 310 311 315 316 316 319 319 319 320 320 317 316 315 318 331 329 329 329 329 329 327 326 326 326 325 325 325 325 326 329 330 328 327 330 328 324 328 327 327 327 327 327 326 323 320 319 317
312 312 311 310 312 315 317 319 320 319 319 320 318 317 317 321 331 331 329 327 328 327 326 325 325 326 325 324 325 324 325 325 327 329 327 328 327 326 327 326 327 327 326 326 324 321 319 318 319
313 313 313 313 313 313 317 320 319 318 318 319 319 318 318 319 332 331 329 326 326 326 326 325 325 325 325 324 324 324 324 324 325 325 327 326 326 325 326 324 325 326 326 324 322 320 319 320 320
312 315 315 314 313 313 314 316 318 317 318 318 319 318 319 317 331 330 329 327 326 326 326 325 325 324 324 323 323 324 325 325 326 326 326 326 325 325 325 323 323 323 323 323 323 321 319 321 320
314 315 315 314 313 315 315 316 316 316 317 318 320 319 317 317 330 330 329 327 325 325 326 325 325 325 324 323 325 324 324 324 326 327 325 325 324 323 322 320 321 321 320 320 320 320 321 321 321
313 313 317 317 317 317 316 317 316 318 318 318 319 320 320 319 330 330 329 328 325 324 325 326 325 324 324 323 325 324 324 324 324 324 324 323 322 322 322 320 320 319 320 318 320 320 320 318 321
311 311 317 320 319 317 319 325 321 320 321 322 320 321 322 331 330 330 328 327 326 324 325 326 324 323 324 323 324 324 324 324 323 322 321 322 321 321 321 320 319 318 318 319 320 320 316 318 320
308 312 312 317 317 319 320 319 319 326 324 325 321 320 322 328 330 329 327 327 326 325 324 325 323 323 323 322 324 323 324 323 323 322 322 321 321 320 320 320 318 317 320 321 320 317 317 317 320
308 310 311 317 322 323 319 318 321 325 324 324 323 323 322 326 328 329 327 326 326 325 324 324 324 322 322 322 323 323 322 323 323 322 321 321 320 320 320 319 316 317 320 320 319 319 318 318 315
316 309 309 311 319 321 321 320 324 326 326 326 323 322 321 322 328 330 327 327 327 325 324 324 324 322 322 323 322 322 322 322 322 322 322 320 320 320 319 319 318 319 319 318 319 319 318 321 320
316 317 317 309 313 317 317 317 318 321 321 323 322 322 322 323 325 329 328 327 327 326 325 325 323 323 322 323 323 322 322 321 322 323 322 321 321 321 319 319 318 319 318 320 320 319 319 320 319

GFSSGP_925_thetae_108.txt.gz
Theta_e
318 314 314 317 317 312 316 317 318 319 321 319 318 319 318 318 320 320 338 341 343 341 340 338 337 336 333 332 333 332 332 333 335 336 337 336 337 337 336 335 335 338 337 336 336 337 336 333 332
312 314 317 312 317 318 318 317 318 319 319 317 318 319 320 324 339 340 340 342 342 339 339 338 337 336 333 332 333 334 333 332 335 336 336 335 334 333 331 331 333 335 335 337 336 336 334 328 329
312 318 316 314 314 318 319 318 317 318 319 318 318 318 319 325 338 340 337 339 343 341 339 339 338 337 334 332 333 334 332 334 333 335 335 333 331 329 331 331 333 333 334 336 336 335 327 320 324
317 314 312 313 316 315 319 318 315 317 317 317 318 320 321 332 337 336 337 338 341 340 340 341 341 339 337 334 332 334 333 329 328 336 334 332 331 331 330 332 332 333 333 333 333 330 321 324 327
315 307 312 312 312 313 315 315 316 317 318 319 319 320 320 331 334 334 336 338 337 339 340 342 341 340 338 337 335 335 336 334 331 334 333 328 334 331 331 332 332 332 332 331 330 327 328 328 329
313 307 310 312 313 314 315 316 317 318 320 318 318 319 327 334 334 335 333 333 335 336 338 339 341 340 339 339 338 337 336 335 335 332 326 323 333 333 332 332 331 331 331 329 326 327 329 329 330
312 310 312 313 314 316 317 315 318 318 320 320 321 322 332 332 333 333 333 334 335 336 338 339 340 340 339 340 341 341 338 336 336 332 325 327 330 327 330 330 331 330 330 325 325 327 329 329 325
312 310 315 312 314 314 315 316 317 318 318 319 319 321 334 331 334 334 334 335 335 335 336 338 339 338 339 340 342 342 341 337 335 333 327 328 326 326 325 328 331 330 328 322 322 324 325 322 321
310 310 311 314 313 314 315 316 317 317 317 318 318 318 318 332 335 335 337 337 337 337 337 336 335 334 332 332 336 340 342 340 335 333 328 328 327 324 328 332 331 329 325 320 322 323 323 319 320
311 309 312 313 313 314 316 316 315 316 318 318 318 319 333 335 334 334 334 334 336 336 334 332 332 332 331 330 329 331 336 337 336 333 328 329 325 327 324 333 330 327 321 321 322 322 320 319 321
312 313 312 313 313 313 314 313 313 315 314 314 316 317 334 334 334 333 333 334 335 335 335 334 333 333 332 330 331 329 327 327 333 332 329 330 328 327 329 331 330 327 318 319 322 321 319 319 320
316 315 313 313 313 313 314 314 313 313 314 315 313 314 333 334 333 332 332 334 335 336 336 335 335 334 332 331 331 326 325 325 329 329 331 330 329 328 332 331 329 325 315 316 319 319 319 320 319
316 316 316 315 314 313 313 313 314 314 313 314 314 315 327 333 332 332 331 331 333 336 336 336 334 332 331 328 326 324 324 325 324 328 326 329 329 329 329 329 328 321 314 315 315 318 319 319 319
316 316 316 315 315 315 316 316 314 315 315 315 316 316 315 326 330 329 330 331 336 336 337 334 333 331 330 327 327 325 326 326 324 325 325 326 325 329 329 327 326 318 311 313 313 316 319 319 320
312 312 310 314 316 315 314 316 314 313 313 314 316 316 315 314 324 328 331 332 335 336 334 333 331 330 331 328 330 326 326 327 324 324 325 325 328 330 327 326 324 316 314 311 309 313 318 320 320
310 310 313 316 315 316 316 318 317 315 316 317 318 318 316 314 322 329 332 332 333 334 333 331 330 331 331 331 330 328 327 327 327 325 327 326 326 327 328 325 320 314 312 309 309 313 318 320 320
308 312 313 313 311 312 314 315 316 316 317 317 317 317 316 315 320 328 331 333 331 333 331 329 330 331 330 331 331 330 330 328 326 327 329 329 329 329 327 323 318 314 312 310 311 313 316 317 320
307 308 309 309 311 313 314 315 315 315 316 316 317 317 315 314 320 326 331 331 331 331 330 329 330 330 330 330 331 331 329 328 329 327 329 329 329 329 326 322 318 316 315 312 317 319 321 320 321
306 305 304 305 307 310 312 314 313 314 315 316 317 318 314 315 318 328 329 329 329 330 329 329 330 329 329 329 331 330 327 328 329 330 329 328 330 329 327 322 319 318 318 313 320 322 324 322 320
304 304 304 305 306 309 311 311 311 314 316 316 317 318 316 316 327 328 329 328 328 328 328 328 327 328 328 329 329 330 330 327 328 328 329 330 330 329 328 324 321 319 320 317 320 322 322 319 320
305 304 304 307 309 309 312 313 313 315 317 317 317 316 316 316 328 329 329 327 327 327 328 327 327 328 327 327 326 326 328 329 328 328 329 329 328 328 328 327 324 323 321 322 320 323 322 319 318
313 311 310 312 312 314 311 313 312 312 314 316 316 316 316 317 328 329 328 326 326 325 326 326 326 326 325 325 325 325 325 326 327 328 327 328 329 328 328 327 326 326 325 323 322 324 321 319 316
312 311 312 313 312 311 312 312 312 313 314 315 315 315 315 314 327 330 328 327 325 325 324 325 326 325 324 325 324 324 323 323 324 325 328 327 328 327 327 327 327 326 326 325 323 322 320 318 317
309 311 314 314 312 314 313 312 314 312 314 315 316 316 317 315 326 329 328 326 324 324 324 325 325 325 324 324 323 323 324 323 323 324 325 326 327 325 324 325 325 326 325 324 322 321 320 319 318
309 312 314 316 315 315 313 314 314 313 314 316 319 319 321 321 323 329 327 326 323 323 323 324 324 324 323 323 323 324 323 324 324 325 326 325 326 325 323 324 324 325 325 325 324 322 320 320 320
307 308 312 318 317 315 314 316 318 316 317 322 324 323 322 320 324 329 328 326 324 323 323 324 324 324 323 323 323 324 324 324 324 326 325 325 324 324 322 322 322 323 324 324 323 321 321 320 320
309 311 310 313 315 317 316 315 314 314 324 324 324 324 322 328 328 329 328 325 324 323 323 324 324 324 323 322 324 324 324 324 323 324 323 323 324 323 322 321 321 321 321 320 320 319 319 320 319
311 308 310 312 317 315 317 317 317 320 323 324 325 324 322 324 329 329 328 326 325 324 323 323 323 323 323 322 323 323 324 324 323 322 322 322 321 321 321 320 320 320 320 317 317 318 320 319 318
314 316 316 309 316 316 319 317 322 323 322 322 324 323 321 321 321 328 327 326 325 324 323 322 323 322 322 322 322 322 323 323 323 322 322 322 322 321 320 320 319 318 318 319 318 318 319 319 317
313 313 315 318 314 316 316 315 314 322 323 322 321 319 320 319 317 325 326 326 324 323 323 322 322 322 322 321 321 321 323 323 323 323 321 321 321 321 320 319 320 320 319 319 320 320 319 318 317

GFSSGP_925_thetae_111.txt.gz
Theta_e
319 315 314 316 316 312 316 315 315 317 320 318 318 317 317 317 318 318 331 336 342 340 337 337 337 336 333 333 335 335 335 338 341 343 342 340 339 339 338 338 338 339 340 341 339 339 339 340 336
315 314 316 310 316 317 316 315 316 316 318 317 317 317 318 324 336 336 338 338 341 338 337 337 337 336 332 332 335 335 336 336 338 341 341 340 340 340 338 338 338 338 339 338 338 338 339 337 334
313 318 315 312 313 317 317 317 317 315 315 317 317 317 318 327 337 338 334 335 341 337 337 337 336 336 332 332 333 335 336 334 335 336 337 337 337 337 337 336 337 336 335 337 337 337 337 334 333
315 314 309 313 315 315 316 318 317 315 316 315 316 319 319 326 335 336 334 334 339 338 337 337 336 336 333 332 333 333 333 332 335 336 335 336 336 336 334 334 334 334 336 335 335 335 333 331 331
313 307 312 311 311 312 313 314 313 314 315 317 318 320 320 328 334 335 334 333 337 338 337 338 338 337 336 333 334 334 333 334 335 333 334 333 334 333 334 334 334 334 335 335 334 330 328 328 326
311 305 309 311 311 312 313 314 315 316 315 318 319 318 320 329 333 335 334 332 334 336 338 339 339 339 337 335 334 335 334 334 335 332 332 332 330 326 329 332 333 332 332 332 330 323 325 328 328
311 309 310 310 311 314 316 315 315 315 318 318 318 320 328 332 332 336 333 334 339 339 339 341 340 339 339 338 337 336 336 334 334 334 333 328 326 326 324 331 331 331 331 330 327 324 328 329 327
309 310 312 312 314 314 314 314 316 315 316 315 318 328 331 330 333 336 336 334 336 337 338 338 340 340 340 340 341 340 337 337 335 335 329 323 326 327 324 330 331 330 329 328 328 328 329 329 325
307 311 312 314 312 313 313 315 315 314 315 315 317 322 324 329 332 333 333 335 338 338 338 338 339 339 339 339 342 340 339 339 336 334 329 324 330 328 326 331 332 330 328 327 328 329 330 325 323
311 310 311 311 311 313 314 314 313 314 314 314 315 319 330 332 333 333 334 334 337 338 338 337 338 337 336 337 338 340 340 341 336 334 328 328 330 327 328 324 331 329 326 325 328 328 324 320 323
310 314 310 312 311 311 312 312 312 313 312 312 313 314 332 332 332 333 334 334 335 335 336 336 336 335 332 331 330 331 338 339 337 333 327 328 328 326 324 326 331 329 325 325 326 324 320 320 323
315 312 312 313 313 312 311 312 312 311 312 312 311 312 330 332 333 332 332 332 333 334 334 335 334 333 331 331 330 329 329 331 331 332 330 327 327 326 326 324 323 330 325 324 324 322 319 320 322
314 314 314 314 314 313 312 311 312 312 311 312 311 312 327 331 332 333 332 332 332 332 333 334 333 333 332 332 330 330 329 327 329 331 330 329 327 328 326 329 330 330 325 322 323 321 319 320 321
314 315 314 313 313 313 315 314 313 313 313 313 313 314 315 329 331 331 331 330 331 331 333 335 335 334 333 330 329 327 324 325 328 330 329 330 328 328 326 330 329 329 323 320 323 320 319 319 320
310 310 309 311 313 314 314 316 312 312 312 315 316 315 315 314 319 329 330 330 330 331 333 334 335 334 332 330 327 324 324 324 325 326 327 329 329 328 330 329 328 328 321 316 321 319 318 318 321
309 310 311 314 314 314 314 318 316 314 314 314 314 314 314 314 313 319 327 329 329 331 333 334 335 332 330 329 327 327 326 326 328 326 324 326 328 328 329 327 327 328 318 316 319 318 318 319 320
306 309 310 311 312 312 311 311 313 312 313 314 314 313 313 314 314 314 319 327 330 332 334 335 332 330 330 330 329 328 327 325 328 327 325 325 328 328 327 327 326 327 316 314 316 316 317 318 320
309 307 308 310 309 310 309 309 308 310 312 312 312 312 312 313 314 314 320 329 330 333 334 333 330 330 331 331 331 330 329 328 328 326 325 325 328 327 327 325 326 324 314 313 313 314 317 318 320
307 306 306 305 305 305 305 305 306 307 309 310 311 311 313 313 314 315 327 329 330 332 332 330 330 330 330 331 330 328 328 328 328 327 326 325 327 328 326 325 325 320 313 311 311 314 318 317 319
303 304 304 303 303 304 304 306 308 308 308 310 312 313 314 314 313 324 326 327 329 329 329 329 330 330 329 329 331 329 329 327 328 328 328 325 326 326 325 324 322 317 313 311 313 316 317 318 319
305 304 304 304 304 306 306 309 310 310 310 313 313 313 314 314 313 324 327 326 327 327 327 328 329 329 329 329 330 329 329 327 328 329 329 329 328 327 325 324 322 317 315 312 314 317 319 319 318
312 306 306 305 308 311 310 313 312 310 310 311 311 311 312 312 315 324 328 325 325 326 326 327 328 328 328 328 328 328 327 328 328 327 328 328 329 328 327 326 323 318 317 314 316 319 321 320 317
312 311 311 311 310 311 310 310 312 310 312 311 310 311 310 312 318 326 328 327 326 326 325 326 326 327 327 327 327 327 327 327 327 327 327 328 328 328 328 326 322 320 318 319 316 321 321 321 318
309 309 310 311 310 313 311 311 312 310 311 311 312 313 319 318 315 321 326 327 325 324 324 325 326 326 325 324 324 324 324 325 325 326 327 327 328 327 328 328 324 322 321 321 320 321 321 320 318
307 308 309 310 314 314 310 312 311 311 311 313 321 322 321 320 320 318 325 326 324 322 323 324 324 324 323 323 323 324 323 323 323 323 324 325 327 327 327 327 326 325 323 323 322 321 321 319 318
306 308 310 309 311 310 311 314 312 314 316 320 321 321 321 321 320 323 326 326 324 323 322 323 324 324 323 323 322 323 323 323 322 323 323 324 324 326 324 325 326 326 325 324 323 321 320 318 318
310 308 308 308 309 315 311 311 310 314 319 320 321 322 321 320 318 321 327 325 324 323 322 323 323 323 323 323 323 322 323 323 324 324 325 325 326 325 324 324 324 325 325 324 322 320 320 320 321
312 310 309 310 314 312 310 314 314 315 320 320 319 322 321 318 317 319 327 325 324 323 322 323 323 323 323 322 323 323 323 322 322 323 324 324 325 324 323 323 324 324 324 323 322 321 322 320 320
309 313 312 313 311 314 312 310 317 321 321 319 319 319 318 318 320 319 322 325 325 323 322 322 322 322 322 322 322 323 323 322 322 323 323 323 323 322 321 322 322 322 322 322 322 323 320 320 319
309 313 314 316 317 315 315 313 311 311 321 319 320 318 318 319 319 317 317 325 323 323 322 322 322 322 322 322 322 322 322 322 322 322 322 322 322 322 322 321 320 320 320 321 321 319 319 318 318

GFSSGP_925_thetae_114.txt.gz
Theta_e
317 316 314 314 316 312 316 315 313 316 318 316 315 316 316 316 318 316 325 333 335 335 334 337 346 343 337 335 335 336 337 344 342 340 339 339 339 338 337 336 337 338 340 340 340 337 338 337 337
317 313 314 309 314 316 313 314 317 316 316 316 316 316 319 320 331 332 332 332 336 337 334 337 346 342 336 334 335 335 337 341 345 343 340 339 339 339 337 337 339 339 340 339 338 338 337 336 336
313 317 313 310 311 315 315 316 315 314 313 317 315 316 318 323 334 335 329 330 337 339 333 335 340 339 334 333 334 335 337 338 341 346 341 339 338 338 337 336 338 339 339 338 338 337 336 336 335
314 312 307 313 314 314 315 317 315 314 314 313 314 317 317 322 332 333 328 329 335 335 333 334 338 337 334 333 333 334 335 338 343 344 340 341 340 337 337 338 338 338 336 335 335 336 335 335 333
311 306 311 311 311 311 312 313 314 314 314 315 315 317 318 322 331 333 330 329 333 333 333 335 337 338 334 333 333 334 333 336 340 340 333 338 338 339 338 337 336 334 334 333 333 335 334 333 332
308 304 310 310 309 311 311 312 314 314 314 314 316 318 318 326 332 333 332 331 335 334 335 336 337 339 335 334 334 334 334 334 336 334 334 330 332 332 331 331 333 333 334 332 334 333 332 331 330
308 307 310 309 309 311 312 312 314 315 315 317 316 318 320 327 329 333 336 338 339 337 336 337 337 339 338 334 334 335 335 335 334 334 329 330 330 327 324 323 330 331 332 332 332 331 331 329 327
307 309 311 310 311 311 313 314 314 314 313 313 319 322 322 325 330 333 336 337 340 339 337 338 339 338 339 339 336 336 336 336 334 332 331 332 329 325 326 326 327 330 331 331 329 329 326 325 324
306 310 311 312 312 312 312 313 313 312 313 312 314 319 322 323 331 334 335 335 338 340 339 339 340 339 339 339 341 338 338 337 336 334 331 327 326 326 325 324 328 330 330 330 327 327 328 328 327
310 310 311 311 310 312 313 313 312 313 312 313 313 313 323 329 331 332 332 332 335 337 338 339 339 339 339 339 342 339 339 339 337 336 332 331 326 325 324 324 325 327 329 329 327 329 328 324 327
311 312 310 311 310 311 311 311 311 312 311 312 313 312 326 330 330 330 332 332 333 334 336 337 338 339 339 339 340 339 338 339 338 336 333 327 325 327 325 325 325 330 329 327 328 329 327 324 324
313 310 311 311 312 312 311 312 312 310 311 312 310 309 317 330 329 329 331 332 333 334 336 337 338 338 337 337 337 338 339 336 337 336 331 326 329 328 326 324 330 330 328 327 329 328 323 322 324
313 314 313 313 314 313 312 312 313 310 309 310 310 311 311 322 328 330 331 331 331 332 333 335 336 336 335 333 331 331 332 335 334 334 333 329 329 328 327 327 328 329 327 324 328 324 320 322 323
314 313 313 312 313 312 314 313 312 313 312 311 311 312 313 317 326 329 330 331 331 331 332 333 334 335 334 331 331 330 329 328 329 331 332 330 328 327 327 328 328 328 326 322 326 322 319 321 322
310 310 309 309 311 312 312 313 312 311 311 312 314 313 313 313 318 323 324 327 328 329 330 331 332 333 332 332 332 331 329 328 328 327 330 329 328 328 327 327 328 328 327 322 325 321 319 320 321
308 309 310 312 310 312 313 316 315 314 311 311 311 311 312 312 312 314 316 318 319 326 329 330 332 333 333 333 332 330 327 325 326 329 330 330 328 327 328 328 327 326 327 321 324 320 319 319 320
306 309 309 310 311 313 312 313 309 308 307 308 310 310 310 310 311 313 314 315 317 322 328 330 332 333 334 333 330 327 325 323 324 325 327 328 328 328 328 327 328 326 326 321 323 320 318 319 319
309 308 307 309 309 309 308 307 305 303 305 307 307 308 308 308 309 311 314 316 319 322 328 330 332 334 334 330 329 327 326 327 326 326 327 326 326 328 328 327 327 326 325 319 321 320 317 318 319
307 307 306 306 306 305 306 304 302 303 303 305 306 306 307 309 310 312 314 319 326 328 330 330 332 333 331 328 327 327 327 328 326 327 327 326 325 326 327 326 326 325 325 317 319 319 317 317 318
304 304 305 303 303 303 302 303 304 305 306 306 307 308 308 309 311 311 313 325 327 329 330 330 332 331 329 328 327 327 326 327 328 327 326 325 326 325 323 323 324 324 321 315 316 316 315 317 319
302 302 303 304 304 304 304 308 309 308 307 310 309 309 309 309 309 310 312 323 326 328 328 328 329 330 329 330 327 327 326 328 328 327 325 325 327 327 327 326 325 324 321 314 314 315 316 317 318
310 306 307 309 306 310 309 311 309 309 310 310 308 307 306 306 310 310 312 322 324 326 327 327 328 328 329 329 327 327 327 327 328 327 327 325 327 326 325 325 323 323 321 312 312 314 316 317 317
312 309 308 308 309 309 309 309 308 308 309 308 308 308 310 316 315 316 315 323 325 326 326 327 326 326 328 328 328 327 327 326 326 328 328 327 325 326 326 325 324 323 318 312 311 314 316 317 317
309 309 308 309 308 310 309 308 308 308 310 310 312 317 319 318 316 316 317 321 325 325 325 325 325 325 327 327 327 327 327 327 327 327 327 328 328 327 325 325 324 322 319 314 311 313 315 318 318
306 307 308 306 313 310 309 309 309 308 309 319 320 320 319 317 315 315 316 323 324 324 323 324 324 324 325 326 326 326 326 327 327 327 327 327 327 328 327 326 325 324 321 317 313 316 317 319 319
306 307 310 309 308 306 310 311 310 311 316 318 319 320 319 317 316 316 317 320 325 324 323 323 323 324 324 324 325 325 324 324 325 326 326 327 327 327 327 327 325 323 322 319 317 316 318 320 320
309 309 308 308 307 310 307 308 308 313 315 317 316 318 318 316 316 316 316 317 323 324 322 323 323 324 324 324 324 323 323 323 323 322 323 323 324 326 327 327 327 325 322 321 320 318 318 319 320
310 311 310 310 313 312 308 311 311 318 319 318 316 316 315 314 315 316 316 317 317 323 323 322 323 323 323 323 323 322 323 322 322 323 323 324 324 324 324 325 326 326 324 323 321 319 319 319 319
308 311 312 313 313 316 316 309 314 311 318 318 317 316 315 315 316 316 316 316 318 323 323 322 322 323 322 322 322 322 322 322 322 322 323 324 324 325 325 324 325 324 324 322 321 320 319 319 319
311 312 313 313 316 314 315 313 310 306 308 310 318 318 318 317 316 317 319 319 322 323 323 322 322 322 320 322 322 322 322 322 322 322 322 322 323 324 324 323 324 324 323 322 322 320 320 320 320

GFSSGP_925_thetae_117.txt.gz
Theta_e
316 314 314 316 322 320 322 321 316 319 319 318 318 319 322 320 329 324 325 335 332 331 334 336 335 345 337 336 335 336 340 343 342 341 339 339 338 339 340 339 339 340 341 341 340 339 340 339 336
317 313 315 315 321 321 320 318 320 319 318 317 317 317 319 321 325 331 333 336 332 330 331 334 334 344 337 336 335 335 338 344 342 340 339 339 339 339 339 339 339 340 340 340 341 340 339 337 336
314 316 319 318 318 317 320 319 319 318 316 317 318 317 319 323 332 333 326 329 333 332 329 331 332 342 338 336 335 335 338 345 342 340 339 338 338 338 336 337 338 338 339 338 340 339 337 337 335
315 316 312 318 317 318 319 319 317 317 316 315 317 319 318 320 332 331 325 327 334 334 332 331 332 341 338 336 335 335 336 340 342 340 339 339 338 336 336 334 337 337 337 337 339 336 335 336 335
310 314 317 317 316 315 316 317 316 317 316 316 316 319 321 321 326 330 327 327 331 334 333 333 333 335 336 335 335 335 335 337 341 340 338 337 334 335 334 334 336 336 335 335 335 334 334 335 334
315 312 315 314 313 313 314 314 315 317 316 317 317 318 321 324 330 330 329 329 331 333 335 335 335 336 334 334 335 336 336 337 335 338 338 338 334 335 330 333 333 334 332 333 334 333 334 334 333
312 314 314 313 313 313 314 314 316 316 316 317 318 320 321 326 326 332 333 332 335 336 334 336 337 338 336 333 335 337 336 336 336 341 336 333 335 333 325 331 325 331 333 332 332 334 333 333 332
312 314 314 313 312 313 314 315 315 316 316 314 319 322 319 320 324 330 335 337 337 338 336 336 337 339 341 340 337 336 338 336 338 339 331 335 334 329 330 328 327 329 325 331 332 333 332 331 330
310 315 314 312 313 313 314 315 314 314 315 314 315 318 318 321 324 332 335 337 339 339 338 337 337 338 341 340 340 338 337 336 336 337 335 333 330 329 328 324 324 323 324 331 331 331 331 329 328
315 315 313 314 313 313 314 314 315 315 315 316 316 316 315 325 330 332 335 337 338 340 338 338 338 338 342 343 340 339 338 337 336 337 333 330 330 331 329 326 325 325 328 330 331 330 328 325 326
314 315 313 313 313 313 313 313 314 315 316 317 318 318 317 321 327 331 333 335 336 336 338 338 338 340 341 342 340 338 338 338 337 336 334 332 330 326 327 328 328 329 330 329 329 327 328 328 327
314 313 314 313 313 314 314 314 316 315 317 317 317 316 313 316 323 329 332 333 334 334 335 336 338 339 340 341 341 339 338 339 338 337 335 332 329 326 328 330 331 331 331 329 327 327 327 328 326
314 314 313 313 314 314 314 316 316 315 315 314 313 313 315 315 317 325 329 331 332 332 332 332 335 338 339 340 340 339 336 335 337 336 335 332 331 329 327 328 329 329 330 330 326 326 325 325 324
315 314 314 314 314 315 316 316 315 315 314 313 314 316 315 316 318 323 328 329 331 330 331 331 333 336 337 338 338 338 337 334 334 336 334 333 331 328 327 327 328 330 329 329 325 327 326 324 323
311 312 312 311 313 314 314 315 314 316 315 313 314 316 316 316 316 319 322 322 321 320 322 328 330 333 336 336 336 334 334 334 334 334 333 332 329 327 327 327 326 329 328 327 325 325 323 322 323
309 310 312 312 311 313 314 317 317 312 312 310 310 311 313 315 314 315 316 317 317 319 320 324 328 332 334 335 334 331 330 329 328 328 328 331 329 328 328 328 328 328 328 326 325 323 321 321 322
308 311 311 312 312 314 315 316 314 310 307 308 309 310 311 312 314 313 313 314 314 315 316 322 328 331 332 333 332 330 331 330 327 327 327 329 329 329 328 328 328 327 327 324 323 322 321 321 321
308 309 309 311 310 310 312 313 311 307 306 307 308 309 311 312 313 313 313 313 313 313 316 323 329 330 331 331 330 330 328 327 327 327 328 327 328 329 328 328 327 326 324 322 321 321 320 321 321
308 309 310 308 308 309 310 309 308 307 305 307 309 310 311 313 314 312 312 312 314 320 325 328 330 330 329 329 328 327 325 325 325 324 324 325 326 327 328 328 327 325 324 321 321 319 319 320 320
306 308 309 307 307 306 307 308 308 308 308 309 310 311 312 313 313 316 316 315 318 324 328 329 330 329 330 330 329 328 326 326 329 328 326 326 326 326 326 327 325 324 323 321 319 319 319 320 319
305 306 307 306 306 307 307 311 311 310 308 310 311 312 311 311 319 320 320 319 320 324 327 329 330 329 330 330 329 328 326 326 327 327 327 326 326 325 325 326 324 323 321 319 319 319 319 319 319
308 305 305 305 309 312 310 312 311 311 311 311 311 311 315 321 321 319 319 319 322 323 327 328 329 328 329 329 328 328 327 327 326 328 327 326 325 325 324 323 323 321 320 318 318 318 319 318 320
308 310 307 309 311 310 311 312 310 309 309 311 312 318 321 321 320 319 319 318 322 324 327 328 328 328 327 327 327 328 326 326 328 328 326 326 325 323 323 323 323 322 319 319 316 317 318 319 320
311 311 311 310 311 311 311 310 309 309 311 311 319 322 322 321 320 318 318 318 320 325 326 327 328 325 327 328 327 327 326 326 327 327 327 325 326 325 323 324 323 323 318 317 315 316 317 318 319
310 310 309 311 312 308 309 310 310 310 314 320 321 320 321 318 317 317 318 319 318 324 323 325 325 324 324 327 327 326 326 328 327 327 328 327 326 326 325 325 323 322 323 319 314 315 316 317 319
310 310 309 306 308 307 309 310 312 317 318 317 317 318 317 317 316 317 318 318 318 319 324 323 324 324 323 325 325 325 327 327 328 327 328 327 327 326 325 325 325 324 321 320 315 314 316 317 318
308 309 309 308 309 312 311 310 313 315 315 313 314 317 318 317 317 318 319 318 320 319 320 323 323 324 324 323 324 325 325 326 326 326 327 327 327 327 327 325 324 323 324 323 318 315 316 316 317
310 310 311 311 313 312 310 311 314 311 310 309 310 314 318 318 318 318 319 320 320 323 322 324 323 323 323 324 325 325 325 324 324 324 324 324 325 326 327 326 326 325 323 322 319 317 317 316 317
309 312 313 313 314 311 311 311 312 310 309 306 306 309 316 319 318 317 318 319 317 319 324 323 323 323 323 324 325 325 324 323 323 322 322 323 324 324 324 324 326 325 325 323 321 318 317 317 317
311 313 313 314 315 315 314 313 312 308 306 305 305 305 312 318 318 316 317 317 317 315 322 323 322 323 323 324 324 324 322 322 322 321 322 322 323 324 324 325 325 324 325 322 322 319 318 317 317

GFSSGP_925_thetae_120.txt.gz
Theta_e
318 315 316 321 323 323 323 325 323 324 323 324 323 326 326 324 325 324 331 338 341 337 341 332 334 333 338 337 336 336 337 341 343 341 339 339 341 341 342 342 341 342 341 341 340 340 341 337 337
320 315 319 321 321 321 322 325 324 324 322 321 322 323 323 324 324 329 334 341 339 339 340 342 332 333 338 337 336 336 338 342 343 342 340 340 341 342 341 342 342 340 339 339 340 341 340 337 337
317 317 321 320 320 320 320 324 324 322 321 322 323 323 324 324 328 329 331 340 339 338 339 342 331 331 336 336 335 336 345 344 342 342 340 340 341 341 341 340 340 339 338 339 340 340 338 336 336
316 318 317 318 319 320 320 323 323 321 320 321 323 323 322 323 328 330 331 338 339 338 338 340 331 332 336 336 334 335 339 346 343 341 340 340 340 340 337 337 336 337 337 337 337 336 337 336 335
315 318 318 318 319 319 320 323 322 321 321 321 321 323 323 325 328 333 332 336 338 339 340 340 332 335 336 335 334 334 336 344 344 341 340 339 338 337 326 332 330 331 334 336 336 336 336 335 335
317 317 318 318 319 318 318 319 319 319 320 320 320 321 323 326 329 333 335 336 340 342 343 342 332 337 337 336 335 335 335 337 344 342 339 339 339 335 326 333 326 326 333 335 336 335 334 335 335
317 318 318 318 318 317 317 318 318 319 320 321 320 322 324 324 327 334 337 339 342 345 344 343 332 339 338 338 337 336 336 335 337 340 339 338 337 334 332 331 333 331 334 334 334 333 333 335 334
317 318 319 318 318 318 317 318 319 319 320 318 319 323 324 322 327 335 340 341 343 345 345 344 341 339 342 340 338 337 337 335 334 339 340 338 335 333 333 330 331 334 330 331 332 333 333 334 333
317 318 320 320 318 319 317 317 318 318 319 318 318 320 320 321 326 330 335 341 342 343 344 344 344 342 343 343 341 338 338 335 336 340 340 338 337 336 332 332 330 327 328 331 331 332 332 333 331
317 319 320 320 318 318 317 318 318 318 318 318 319 320 320 320 324 325 327 333 340 341 343 344 344 342 342 343 341 341 341 340 340 341 340 336 335 336 334 333 328 328 332 331 332 333 332 331 330
317 319 320 317 317 317 317 317 317 317 317 318 319 320 321 321 322 324 326 328 332 338 341 343 343 342 342 342 341 340 340 340 340 340 340 338 336 335 334 332 331 328 330 329 329 331 331 330 327
317 317 317 317 317 317 317 318 318 318 319 319 320 320 320 320 321 322 324 327 329 334 338 342 342 341 341 342 340 341 342 340 341 340 340 337 335 335 333 332 329 331 332 331 332 331 329 327 325
317 317 317 317 317 318 318 318 318 319 319 319 319 320 320 321 321 320 323 327 329 332 335 338 341 340 340 341 341 340 340 341 341 339 339 337 334 334 333 332 330 329 331 332 330 329 327 327 327
316 316 317 317 317 317 317 318 319 319 320 319 320 320 321 321 321 321 323 325 326 327 330 334 338 340 340 340 339 339 339 339 338 338 338 338 335 333 331 330 332 330 331 331 328 328 327 327 328
314 315 315 316 317 318 318 319 320 320 320 320 319 319 319 318 317 319 320 320 321 320 320 327 331 337 340 340 339 337 337 337 338 339 337 337 335 334 329 329 330 329 330 330 328 327 326 326 327
312 314 315 316 316 316 317 318 319 319 319 319 316 314 315 316 316 316 316 317 317 317 318 320 325 331 337 339 340 338 335 335 336 337 335 335 335 334 332 331 330 329 327 328 327 326 326 326 327
310 312 314 315 315 317 317 318 318 318 316 315 314 314 314 315 316 316 316 316 317 317 318 319 322 328 333 337 338 339 337 335 336 336 336 334 333 332 331 330 329 328 328 328 326 326 325 326 326
310 310 311 313 315 315 317 317 317 315 315 315 313 312 314 315 315 316 316 318 319 319 319 319 319 325 331 335 337 337 333 331 331 331 332 333 331 331 331 329 328 327 327 326 325 325 325 326 326
309 309 310 311 312 313 314 315 315 314 313 312 311 314 315 316 316 315 320 322 323 324 324 325 326 328 332 335 336 333 330 328 329 328 328 328 329 330 329 329 328 327 326 325 325 325 325 324 325
308 308 308 309 311 311 312 312 312 311 312 313 314 314 315 315 316 320 321 322 323 326 328 328 330 331 333 333 333 332 331 331 329 326 327 326 327 328 328 328 328 326 325 325 324 325 325 324 325
309 309 308 308 308 308 309 310 311 312 313 313 314 315 314 317 321 322 323 323 323 326 329 329 330 332 332 332 331 333 331 330 326 327 326 326 328 330 329 328 328 325 324 323 323 324 324 325 324
311 310 308 307 308 309 310 312 313 313 313 314 314 315 319 322 322 322 322 323 323 327 330 330 331 332 330 332 331 333 332 332 330 329 329 329 330 328 326 326 326 324 324 323 322 323 323 324 325
309 309 309 309 310 309 311 312 312 312 313 312 314 320 322 323 323 320 320 321 322 325 329 330 331 330 329 331 333 333 334 332 330 329 330 330 327 326 326 325 325 325 324 323 322 323 324 324 324
308 309 311 312 311 314 312 313 312 312 313 313 319 321 322 320 319 319 319 320 321 322 326 328 329 329 329 330 333 333 333 331 331 331 330 329 325 324 324 323 322 322 322 322 321 322 323 324 324
308 310 312 313 313 313 310 310 311 312 315 319 321 320 319 319 319 319 320 322 322 324 323 326 326 328 326 327 331 332 331 330 330 331 330 329 326 323 322 322 321 319 319 320 320 320 322 322 324
310 311 310 311 312 312 311 310 313 319 318 317 317 317 318 319 319 319 320 323 323 324 327 325 327 326 326 325 327 330 330 328 329 330 330 328 328 325 323 321 320 319 319 320 319 320 322 322 323
309 313 312 311 310 310 311 316 319 317 314 313 314 315 318 318 318 318 318 321 321 322 324 327 326 327 326 325 326 328 328 330 330 330 330 330 327 327 325 324 321 321 319 319 318 319 320 321 323
310 310 310 310 311 309 309 313 314 315 310 307 306 306 310 314 316 317 318 319 318 319 320 320 328 326 325 325 325 329 329 329 329 329 330 330 328 327 327 325 323 322 321 318 318 317 318 319 321
315 314 313 312 311 311 312 311 315 314 311 308 306 305 306 310 314 317 318 317 317 318 318 318 321 325 324 325 324 328 328 328 328 326 327 327 326 326 327 326 324 324 322 322 321 319 318 318 319
309 314 316 319 315 314 313 313 314 314 311 307 307 305 306 307 314 316 317 317 317 318 318 317 314 323 324 324 324 328 328 327 327 326 325 324 324 326 326 324 325 325 323 322 321 320 321 320 320

GFSSGP_925_thetae_123.txt.gz
Theta_e
316 317 317 320 324 323 323 325 326 326 326 326 327 329 328 328 328 329 328 334 333 335 340 329 329 331 335 337 337 337 338 342 341 340 339 339 340 341 342 342 341 341 341 342 341 341 342 339 337
323 318 318 323 322 323 324 325 326 325 326 326 325 328 325 325 325 327 331 338 334 335 340 343 328 331 334 336 337 336 336 340 342 341 340 339 340 342 342 342 341 341 339 341 341 338 338 338 336
322 317 321 322 322 322 322 325 325 326 324 325 325 325 326 325 326 327 331 337 334 334 337 342 330 330 334 336 336 335 335 339 342 342 341 340 340 342 341 340 339 339 337 340 341 339 338 336 336
319 318 320 321 322 322 322 323 325 325 324 324 325 325 325 325 327 327 330 334 334 334 335 341 334 330 334 336 336 336 337 340 343 343 342 340 341 341 340 338 332 336 329 336 335 335 335 336 336
318 321 321 321 321 321 323 323 325 324 324 324 325 325 325 325 328 330 330 334 333 335 337 341 330 329 333 336 336 336 342 345 343 344 342 340 340 341 340 328 325 328 324 330 334 335 335 335 335
319 319 321 322 322 322 322 321 324 324 323 324 323 324 325 328 327 330 331 333 335 337 340 347 332 330 334 335 335 335 336 347 345 344 342 340 340 340 337 323 327 327 325 325 331 334 335 335 335
320 322 322 323 322 322 321 321 321 322 322 324 324 324 325 327 328 332 333 334 338 342 345 346 343 336 335 336 335 335 335 344 344 344 342 341 339 338 333 327 328 325 330 324 331 335 335 335 334
321 322 323 323 323 322 322 320 320 320 321 323 322 323 325 326 327 332 337 337 341 345 348 346 345 344 343 341 336 335 335 336 344 343 342 342 339 337 333 332 329 329 332 334 333 334 333 334 334
321 322 323 323 323 322 322 319 320 321 320 321 321 322 325 322 324 329 336 339 342 345 347 346 347 345 345 344 341 337 336 335 338 342 342 341 340 337 335 334 332 332 335 333 333 333 333 333 333
321 323 323 323 323 323 322 320 321 320 320 320 321 321 321 321 322 325 327 332 339 342 345 346 347 346 345 343 343 342 342 340 340 342 342 342 339 339 337 335 334 335 332 332 332 329 330 332 332
321 322 323 323 322 321 321 320 320 321 321 320 320 320 322 323 323 324 325 326 328 336 341 344 346 347 345 344 343 342 342 341 341 340 341 341 339 338 337 335 334 333 331 333 329 329 329 331 331
321 321 321 321 321 320 320 320 320 320 320 321 321 321 321 322 323 323 324 324 326 328 337 342 344 347 345 343 343 342 342 341 341 341 341 341 338 336 338 334 334 332 332 333 331 328 328 331 330
319 319 320 320 319 320 320 320 321 321 321 321 321 321 321 322 322 322 322 323 325 328 332 338 344 346 345 344 343 342 342 342 341 341 341 342 340 337 336 334 333 333 332 332 331 329 329 330 326
318 318 319 319 319 319 319 319 320 320 321 321 321 322 322 322 323 323 322 323 324 327 330 335 339 344 344 343 342 343 342 342 341 341 341 342 340 338 336 335 333 332 332 332 329 330 329 328 327
317 317 318 318 319 319 319 320 320 320 320 321 321 322 322 322 322 323 323 323 323 324 325 328 334 338 343 343 341 341 342 342 342 342 342 341 340 338 336 335 334 332 331 329 326 330 328 327 327
315 316 318 318 318 317 318 320 320 321 321 322 322 322 321 321 321 319 320 321 321 321 321 321 321 329 337 341 341 340 340 342 341 341 341 341 340 338 336 335 335 332 331 328 329 328 328 328 327
314 315 316 317 318 318 318 319 319 320 321 321 321 320 319 318 319 318 318 318 318 318 319 319 320 322 329 336 340 341 338 338 340 341 340 337 338 337 336 334 332 332 330 329 329 328 327 326 326
312 313 314 314 314 316 317 318 319 320 320 320 318 318 317 316 317 317 317 317 320 320 320 322 321 322 324 331 337 340 342 338 337 338 339 339 338 337 336 334 332 331 330 328 327 326 326 327 326
311 311 311 313 313 313 315 316 317 318 319 318 318 317 316 316 316 316 317 320 322 324 326 325 326 325 323 327 334 338 342 339 336 335 338 339 335 336 334 333 332 331 329 328 326 326 326 326 327
311 311 311 311 311 311 312 314 314 315 317 317 316 315 315 316 317 317 320 322 324 325 326 330 329 329 329 329 333 337 339 333 332 332 336 336 334 333 331 333 330 330 328 326 326 326 324 325 327
309 310 311 311 310 310 311 312 312 312 313 314 315 315 316 317 317 320 322 323 325 326 330 331 330 330 332 332 335 336 333 331 330 330 332 334 332 331 331 330 330 329 328 326 326 326 324 325 325
312 311 310 310 311 311 312 311 312 312 313 314 315 315 316 318 321 321 321 322 323 325 330 332 332 332 333 334 335 334 332 333 331 330 330 332 331 330 331 331 329 328 327 326 325 325 324 324 325
311 311 311 311 311 311 310 311 312 314 314 314 315 316 319 322 321 320 320 321 321 324 326 330 333 333 333 333 335 333 333 333 333 334 331 331 330 331 332 331 329 328 327 326 325 325 325 324 325
311 312 311 311 311 312 312 312 313 314 315 314 315 319 321 321 320 320 320 320 322 324 326 326 329 331 330 331 332 332 333 335 335 334 332 332 332 331 331 330 328 327 326 325 324 325 323 323 325
309 310 313 312 314 319 313 312 312 314 314 314 317 321 320 320 320 320 320 322 322 324 326 328 327 329 329 330 332 332 334 335 335 332 331 333 329 328 328 327 325 325 325 324 323 324 323 323 325
311 311 312 315 317 316 313 314 314 313 319 320 320 320 320 320 320 319 319 320 321 322 322 326 327 328 328 329 329 331 333 334 334 333 332 332 329 326 325 324 324 323 323 323 323 323 323 322 324
312 315 311 313 313 314 314 315 318 318 319 318 318 318 319 319 319 318 318 319 319 318 320 323 327 328 328 327 328 328 331 333 333 331 330 331 331 328 325 323 322 322 322 322 322 322 323 324 324
315 313 316 315 320 317 313 313 317 318 316 316 313 311 311 312 314 315 317 318 317 318 319 321 323 327 328 327 327 327 328 331 331 331 332 332 331 329 326 324 322 321 320 320 320 321 322 323 323
312 315 312 314 316 315 314 312 313 318 313 311 309 308 308 308 309 312 316 317 317 318 319 320 320 322 326 326 326 326 327 329 331 331 331 331 331 330 328 325 322 321 319 319 319 320 321 322 323
310 313 315 322 315 314 315 315 316 316 312 312 310 308 308 308 308 309 315 316 317 318 318 318 319 319 320 325 325 326 325 329 329 329 329 330 330 329 327 326 324 322 320 319 318 319 320 321 322

GFSSGP_925_thetae_126.txt.gz
Theta_e
316 314 318 320 323 324 323 322 325 326 326 327 327 329 328 328 328 332 332 334 338 338 322 325 328 331 334 337 338 338 340 341 340 339 338 337 338 340 341 342 342 341 342 342 340 339 335 333 334
319 322 320 320 323 323 323 324 324 326 327 327 326 329 327 326 326 331 335 332 335 338 326 326 326 329 333 336 337 337 339 341 341 340 339 338 339 340 341 341 341 339 338 339 341 341 335 334 334
320 325 318 322 322 323 323 323 326 326 326 326 325 326 326 325 327 328 334 331 333 338 340 328 325 328 332 335 336 337 337 340 341 341 340 339 339 339 341 340 339 336 335 335 336 337 335 334 334
320 322 318 320 322 323 322 324 324 326 325 324 325 325 325 326 326 329 332 331 332 334 338 338 325 326 331 335 336 336 337 341 341 342 341 340 339 340 341 338 336 333 330 323 332 334 334 335 335
320 320 320 321 320 320 321 322 325 325 324 324 324 325 325 326 328 330 332 331 332 335 337 339 327 326 331 333 335 335 338 346 343 343 342 340 339 340 340 337 328 331 324 327 328 332 333 335 334
322 320 321 322 322 322 323 323 323 324 325 324 324 325 326 325 329 329 333 332 333 337 339 338 329 327 330 333 335 335 338 343 343 344 345 341 340 340 339 329 323 325 324 324 329 331 333 335 334
321 321 321 321 323 323 323 323 322 322 324 323 324 324 325 328 330 332 331 334 336 340 343 342 331 328 330 333 335 334 336 341 342 344 345 342 341 340 339 333 324 328 323 330 331 328 331 333 334
321 322 322 323 324 323 324 324 322 321 321 323 324 323 326 330 330 332 333 334 338 342 345 347 335 332 332 334 334 334 334 338 343 343 344 342 340 339 338 331 329 326 326 329 328 332 332 331 331
321 322 323 322 323 323 324 323 321 321 320 321 323 323 324 324 327 331 336 337 340 347 347 347 345 340 338 337 335 336 335 335 342 345 344 343 341 340 338 330 331 326 330 327 330 330 330 329 328
320 322 322 322 323 323 323 324 321 321 321 321 322 322 322 323 323 328 334 339 342 345 350 348 347 345 345 344 342 336 336 335 338 343 343 343 342 340 337 334 333 329 331 333 333 330 328 327 328
320 321 321 322 323 323 323 323 322 321 321 321 321 322 322 323 324 326 327 329 340 344 347 348 349 346 346 344 345 341 341 338 339 341 342 341 341 341 338 337 334 334 333 334 332 331 328 329 331
319 320 321 321 322 322 322 322 322 321 321 322 322 322 322 322 324 326 327 326 326 338 344 346 348 348 345 346 343 343 343 342 342 340 341 342 341 340 338 336 335 334 333 331 331 328 328 329 330
318 319 319 320 321 321 320 320 321 321 321 322 321 322 322 323 323 323 323 324 324 325 339 345 347 348 347 346 343 341 343 343 343 342 341 343 342 340 338 337 335 333 333 329 332 328 328 329 330
318 319 319 319 320 320 320 320 320 320 321 321 322 323 323 323 323 323 324 323 323 324 328 344 344 348 347 345 345 342 342 343 343 343 342 341 343 340 339 338 336 334 332 331 332 329 327 328 328
317 318 319 319 319 319 319 320 320 320 319 320 321 322 322 322 322 322 323 323 323 323 327 333 342 345 346 346 346 343 342 345 342 342 343 342 343 341 339 338 336 334 332 331 331 327 325 327 328
315 317 318 318 318 319 319 320 319 320 321 321 321 321 322 323 323 322 322 323 323 324 325 330 336 339 345 345 345 343 341 342 345 343 342 343 342 341 339 338 337 334 332 331 330 327 326 326 327
313 316 317 318 318 318 319 319 319 319 319 321 322 322 322 323 323 322 321 321 321 322 322 322 322 334 338 345 345 342 339 340 342 344 343 343 343 341 340 338 336 335 332 331 329 326 326 326 327
313 314 315 316 316 316 316 317 317 318 318 320 321 321 322 322 321 320 319 318 320 320 320 320 319 320 326 339 344 344 341 339 339 340 343 342 340 342 340 338 337 335 333 331 328 327 328 327 327
312 312 312 314 314 314 314 315 317 317 318 319 321 321 319 320 318 317 318 318 321 322 323 325 325 323 323 325 336 341 343 341 340 338 338 342 338 338 338 338 336 334 332 330 328 328 327 327 327
311 312 313 313 313 313 312 314 314 314 315 315 314 319 319 319 317 317 318 321 323 324 325 325 328 329 328 327 325 334 339 343 340 338 336 339 340 337 337 336 335 333 332 330 329 328 327 326 327
313 312 312 311 312 312 313 313 313 313 313 314 313 314 318 316 316 319 323 322 324 325 329 331 331 331 330 330 329 331 338 339 337 336 336 334 339 337 337 336 334 333 332 329 328 327 326 324 326
311 311 312 312 312 311 312 313 313 312 312 313 313 313 315 317 320 322 323 323 324 326 326 330 332 333 332 332 332 336 337 334 333 333 333 334 335 335 333 333 333 330 329 328 328 327 326 324 324
312 312 312 312 313 312 313 314 314 313 313 313 313 314 316 318 322 321 321 321 321 325 326 326 330 332 334 335 334 337 335 334 333 332 331 332 332 332 332 332 330 330 329 327 327 327 326 324 323
311 310 311 313 313 314 313 313 314 313 313 315 316 316 319 323 321 320 321 320 323 325 326 328 329 329 330 331 332 335 336 333 332 331 331 331 331 332 331 329 332 329 328 328 327 326 326 324 323
312 311 312 317 317 317 313 313 314 314 314 316 315 318 323 321 321 321 321 321 321 322 323 324 326 328 330 329 329 331 334 333 332 335 334 333 332 332 331 330 332 330 328 327 327 326 326 324 323
313 313 315 311 314 315 314 316 314 315 314 318 317 321 321 321 321 321 320 320 320 320 320 322 323 327 330 329 328 329 332 333 333 334 333 332 332 330 329 331 330 329 328 327 327 326 325 325 323
315 315 314 317 314 314 315 315 316 316 316 320 321 321 321 321 320 319 318 319 319 318 320 322 322 323 326 328 327 328 330 331 334 334 333 331 333 330 328 326 325 326 325 325 325 324 325 324 323
311 312 316 317 319 316 313 315 319 318 318 320 320 319 319 318 316 315 316 318 317 318 319 320 320 321 321 325 327 326 328 329 332 333 332 330 331 330 328 325 322 323 323 323 323 323 324 323 322
311 312 312 315 320 316 317 315 317 319 319 319 316 314 312 311 310 311 314 316 316 318 318 319 319 319 320 321 323 327 327 327 328 331 332 331 331 330 328 326 322 322 322 322 322 322 323 323 321
306 313 315 313 317 314 317 316 315 317 319 316 310 309 310 309 309 309 309 314 315 317 318 318 318 317 317 318 319 324 327 326 327 329 331 331 332 331 329 326 323 322 322 321 321 321 322 323 323

GFSSGP_925_thetae_129.txt.gz
Theta_e
310 315 314 317 317 316 318 319 320 319 324 323 323 325 324 325 330 332 338 331 322 322 325 325 325 329 333 336 338 339 340 340 339 336 336 336 338 339 340 341 341 339 339 338 337 336 334 333 334
312 318 319 314 315 317 317 320 320 321 325 323 324 326 325 327 330 331 338 334 322 321 324 323 324 327 330 334 336 337 339 340 340 339 337 337 338 339 341 341 339 337 336 337 336 334 333 333 333
316 321 319 312 313 317 318 319 318 323 323 324 323 323 325 324 329 331 338 335 328 322 323 322 324 326 329 333 335 336 337 339 340 340 339 338 338 339 341 340 337 336 336 335 334 332 333 332 333
317 318 314 313 315 316 318 318 319 322 321 322 323 323 324 325 330 332 336 334 331 324 324 322 323 327 329 332 334 335 336 338 339 340 340 339 339 339 340 337 336 333 331 334 331 333 333 333 332
317 314 312 313 313 315 317 317 317 322 322 322 322 323 323 325 332 330 333 334 334 331 335 326 324 326 329 332 333 333 334 336 339 340 340 339 340 340 339 337 335 332 326 326 330 332 332 332 332
316 313 315 314 316 317 318 319 319 323 324 321 322 323 324 329 331 330 331 333 332 334 338 333 325 326 330 331 332 332 332 333 340 341 341 340 340 340 339 337 328 328 323 326 328 331 330 329 332
320 315 315 315 317 318 319 318 320 321 323 324 322 322 322 326 330 330 331 333 333 334 336 336 326 326 330 332 332 333 332 336 341 340 340 340 339 340 338 332 325 327 323 324 327 327 328 329 332
319 315 317 317 319 319 320 321 319 318 320 321 321 321 322 328 332 332 332 337 335 336 336 336 329 327 330 333 334 333 333 337 341 342 343 341 340 339 339 335 324 327 325 329 329 330 332 333 332
315 317 318 317 318 319 319 321 321 319 319 319 319 321 325 328 329 333 338 344 343 342 340 340 331 328 330 332 334 334 334 333 340 342 343 342 340 340 340 338 326 326 325 329 327 328 330 327 327
314 317 318 317 318 319 320 321 318 318 319 318 321 321 324 328 329 331 335 342 347 346 345 344 340 330 331 333 334 335 335 334 337 341 342 342 341 340 339 335 329 327 327 328 325 329 329 328 328
313 315 315 317 318 318 319 319 318 317 316 318 319 319 318 319 321 327 333 337 346 346 347 346 345 340 334 335 335 335 335 336 335 340 342 342 341 340 339 336 332 328 329 329 332 332 329 328 327
313 314 315 316 317 318 319 317 318 317 316 317 317 317 317 318 318 319 322 334 340 345 347 347 346 345 341 340 342 337 335 335 335 336 340 341 342 341 339 336 334 330 330 331 333 330 329 326 327
314 314 315 316 316 316 317 318 318 317 317 317 317 319 318 318 319 321 322 324 327 342 346 348 347 346 344 342 344 343 338 337 336 336 339 339 340 341 340 337 336 334 332 333 332 330 328 327 327
315 315 315 315 315 315 316 317 316 317 316 318 318 318 318 318 318 320 322 322 324 327 343 347 347 347 345 344 344 343 341 343 340 339 339 341 339 340 340 338 336 335 333 333 330 329 328 329 328
311 311 312 314 315 316 315 316 316 316 316 317 317 317 317 317 318 317 321 322 322 322 326 345 347 347 346 345 344 343 341 342 343 341 341 340 342 341 340 338 336 334 333 332 330 329 327 327 327
309 310 311 313 314 315 315 316 316 315 316 317 317 317 317 317 317 320 321 321 321 322 323 339 346 347 346 346 345 344 343 339 344 343 342 341 341 343 340 338 337 335 333 332 331 329 327 326 326
308 309 310 311 313 314 315 316 316 315 316 317 317 317 317 317 317 319 321 322 321 322 323 337 345 347 346 346 345 344 344 342 340 343 342 343 342 342 341 338 338 336 333 332 332 330 326 325 325
307 309 310 311 311 313 314 314 312 313 313 312 311 314 315 317 317 318 321 321 320 320 321 320 323 337 343 343 344 345 344 343 338 341 343 341 343 342 341 339 338 336 333 332 331 329 326 326 325
306 307 308 309 310 309 310 311 311 311 312 311 311 312 311 316 316 319 320 318 320 321 323 324 325 324 324 341 343 343 342 342 339 338 339 341 342 342 341 339 337 336 334 332 331 329 327 326 326
309 308 308 309 309 310 310 311 308 310 312 311 311 310 310 310 315 313 315 320 323 324 325 327 330 330 330 328 332 341 342 341 341 339 338 339 338 340 341 340 337 336 334 332 331 328 327 327 326
309 310 310 310 309 308 307 308 309 310 311 312 312 311 311 311 313 318 320 322 323 328 328 329 330 332 332 331 330 326 339 342 341 339 339 338 338 338 340 339 338 336 335 332 330 329 327 327 326
307 309 310 310 308 309 310 310 309 309 310 311 311 311 311 311 317 320 318 320 325 326 326 326 325 328 332 333 332 328 328 337 339 338 338 337 334 337 339 337 337 336 334 332 330 329 327 326 326
305 306 308 310 309 309 310 311 311 309 310 310 311 311 311 312 318 317 316 323 325 325 326 326 327 327 328 333 334 334 334 334 336 336 337 334 334 334 336 337 336 335 333 331 330 328 327 326 326
306 305 307 308 308 311 311 310 311 310 311 311 311 311 312 316 316 317 317 324 325 325 324 324 324 325 328 328 328 332 336 335 334 333 333 333 333 334 335 334 335 334 332 330 329 329 327 326 325
307 312 313 312 310 312 311 313 312 310 310 311 312 318 315 317 316 316 317 318 321 323 323 322 321 323 329 329 327 329 330 335 334 333 332 331 330 332 333 332 332 332 330 328 328 328 327 326 325
305 314 318 319 315 312 312 314 312 310 310 312 312 319 318 317 316 316 316 316 318 321 322 321 321 321 321 326 328 327 328 330 334 332 331 331 330 330 331 331 331 330 328 328 327 327 327 326 325
304 308 313 317 316 318 312 311 310 311 312 313 312 319 318 317 317 315 314 316 316 321 320 320 321 320 319 320 322 326 325 327 329 332 333 333 332 331 330 331 330 330 330 329 328 327 326 326 326
306 310 312 315 319 318 314 310 312 313 320 318 318 319 319 317 315 313 313 315 317 319 319 319 318 318 318 317 318 319 323 326 327 329 333 333 332 332 331 330 330 330 330 329 327 326 326 326 325
304 308 311 313 314 315 318 312 317 316 317 318 315 317 314 311 310 308 311 314 318 318 318 318 317 317 316 315 315 315 316 323 327 327 329 332 332 332 331 329 328 326 326 325 325 324 324 324 324
305 309 314 314 313 311 312 315 311 311 314 313 312 312 310 306 306 306 305 311 314 316 317 316 315 315 314 314 313 313 314 319 325 327 326 330 331 331 330 328 326 325 322 321 323 322 322 323 323

GFSSGP_925_thetae_135.txt.gz
Theta_e
314 312 314 314 312 311 315 315 316 317 318 317 319 321 325 325 327 327 332 333 334 328 336 338 338 338 338 338 339 339 338 335 334 335 336 336 338 339 340 339 338 338 337 337 336 337 337 336 336
311 315 316 306 311 311 308 314 317 317 319 319 320 323 325 332 333 335 333 329 324 327 333 334 334 333 335 337 338 339 338 335 335 335 336 337 337 339 338 337 337 337 337 336 336 336 335 335 335
316 320 315 309 308 311 310 313 316 314 315 318 319 320 327 333 336 332 330 329 326 327 328 328 330 331 331 335 337 338 338 336 335 335 337 337 338 338 338 336 336 336 336 335 334 333 333 334 334
316 315 311 312 311 311 312 315 313 315 314 315 320 319 322 329 335 333 329 325 325 325 326 326 327 330 328 332 335 337 338 337 336 336 337 338 338 339 338 336 335 336 335 334 335 333 334 334 335
314 310 316 312 311 309 311 313 313 314 314 317 318 319 323 330 335 333 325 324 323 326 326 325 325 328 327 330 333 335 337 337 337 336 337 338 338 338 337 335 335 334 335 333 333 334 334 334 334
311 309 313 314 312 311 312 315 316 316 317 318 317 320 323 327 333 331 326 326 326 324 326 326 325 326 327 329 331 334 336 336 337 337 337 338 338 337 337 335 333 329 333 332 332 333 333 333 334
311 310 315 313 313 314 315 316 318 316 316 318 317 320 324 329 334 329 325 326 325 324 326 328 326 326 327 329 331 333 334 334 336 337 338 338 338 337 337 333 330 327 327 331 331 332 333 333 332
314 314 319 315 317 316 316 316 317 316 316 314 316 318 328 326 336 332 329 329 326 325 328 329 327 327 328 330 332 332 332 333 335 337 338 338 338 338 336 333 327 323 324 327 330 331 331 333 332
311 315 317 318 319 318 316 316 317 316 316 315 314 318 320 328 335 336 336 336 330 328 329 328 327 328 329 331 332 333 333 333 335 338 338 339 339 338 337 332 327 324 322 325 330 330 328 330 331
311 312 315 314 316 315 316 316 315 316 316 317 316 316 322 329 333 337 339 338 337 333 330 328 326 328 329 332 333 334 334 335 337 339 339 339 339 338 338 333 327 326 323 327 330 329 327 332 332
309 314 314 314 313 312 313 314 313 315 314 315 315 315 316 320 326 335 338 338 337 334 334 329 326 327 329 332 335 338 337 337 339 338 340 340 339 339 338 335 327 326 325 327 328 327 329 330 329
308 308 309 310 311 311 311 311 313 311 313 314 315 314 316 317 318 322 332 339 338 338 335 333 330 329 330 332 335 341 340 338 341 338 339 340 340 340 339 336 331 327 325 328 328 328 328 328 326
309 310 309 309 309 309 310 310 312 313 311 312 313 313 314 315 315 317 325 332 338 340 338 336 334 330 329 332 333 338 340 339 342 340 340 340 340 340 339 337 334 328 326 329 328 327 328 328 328
307 305 305 307 310 308 310 311 311 311 312 313 313 314 314 314 314 316 316 318 333 339 340 338 336 335 331 331 331 333 337 338 339 340 338 337 337 338 338 338 334 330 327 327 328 325 328 328 328
305 304 304 306 309 310 310 312 311 311 311 311 312 313 313 312 314 313 317 317 318 331 339 341 339 338 335 331 330 332 333 337 337 338 339 336 337 337 335 338 336 332 330 328 327 326 330 329 328
305 304 306 309 307 308 311 311 313 310 310 310 310 311 312 313 312 314 315 316 317 318 336 341 342 341 340 338 334 332 331 334 335 337 338 338 337 337 336 337 337 335 333 330 328 329 330 330 327
301 303 304 305 307 307 309 309 310 308 308 309 310 308 308 308 310 311 312 313 314 315 324 339 343 343 343 342 340 337 336 336 335 335 334 335 338 337 338 339 338 337 335 333 330 330 331 329 327
305 303 304 306 306 305 303 305 306 305 306 307 306 306 306 306 307 309 311 311 313 314 316 327 340 343 343 343 342 340 340 340 340 339 338 337 337 340 339 339 338 338 336 334 332 331 332 329 328
303 302 303 304 303 305 304 305 306 306 305 305 305 305 305 306 306 308 310 312 315 315 315 319 338 343 343 342 341 340 340 341 341 341 341 341 341 339 338 339 339 338 336 335 333 331 331 328 328
306 305 304 304 303 303 303 304 305 306 304 305 306 305 305 305 306 306 313 315 316 317 318 319 335 342 343 342 341 340 339 340 341 340 341 341 341 341 340 339 337 337 334 333 331 330 328 327 327
299 303 303 304 302 303 303 305 305 306 305 306 306 305 305 305 306 307 316 320 322 324 325 331 339 342 344 343 340 340 339 339 338 339 340 339 340 340 340 339 338 336 334 332 331 331 330 327 326
300 303 305 303 303 303 305 303 304 305 305 306 306 305 304 304 305 307 318 322 326 328 329 330 331 332 333 332 332 333 337 338 338 338 337 338 339 338 337 339 338 336 334 330 332 332 330 328 326
303 302 306 307 306 304 304 304 305 305 306 306 305 306 306 305 304 307 317 323 325 326 326 326 328 330 332 333 333 331 329 332 337 337 337 336 335 338 337 336 337 335 334 332 331 330 329 328 328
300 300 304 306 305 305 304 304 304 304 307 309 312 313 314 309 304 310 318 322 321 323 324 326 326 328 327 327 326 326 327 329 333 332 333 334 333 334 334 333 334 335 333 332 331 331 330 328 328
299 301 303 306 308 306 307 306 308 311 313 312 314 313 311 312 309 310 319 321 318 319 322 325 326 324 327 327 326 326 325 325 327 330 332 332 334 333 332 331 332 334 333 333 332 330 329 328 328
299 303 301 304 304 304 304 305 306 308 308 311 313 311 310 310 310 310 321 320 317 318 319 319 318 318 318 320 321 323 324 324 325 326 328 330 331 332 332 331 331 332 332 333 332 330 329 329 329
300 300 301 303 304 306 305 305 308 308 308 310 312 310 309 310 310 316 319 318 318 318 317 316 315 315 314 313 313 314 315 316 319 322 325 328 327 327 330 331 330 330 332 332 331 330 330 330 329
300 300 301 302 302 304 302 307 310 311 310 310 309 307 309 310 311 314 316 317 317 316 315 314 313 312 311 310 311 311 312 313 316 320 323 325 326 327 329 331 331 330 329 330 331 330 330 329 328
303 304 304 303 305 307 308 307 310 309 310 310 310 307 309 309 309 315 316 315 314 313 311 310 309 308 307 308 308 308 309 310 311 311 315 320 324 325 326 328 331 330 330 330 330 330 329 329 328
302 303 304 301 301 308 309 308 309 309 307 308 309 310 310 309 309 313 314 312 310 307 306 304 303 303 304 305 305 306 306 306 307 308 308 311 316 322 325 326 330 330 330 329 329 329 328 327 327